| time (UTC) | temp F | wind direction | speed knots | gust knots | rain 1hr in | rain 24hr in | rain mn in | humidity % | barometer mb |
| 20260504204651 | 74 | 254 | 3.5 | 16.5 | 0.00 | 0.00 | 0.00 | 45 | 1009.8 |
| 20260504204528 | 74 | 328 | 5.2 | 16.5 | 0.00 | 0.00 | 0.00 | 44 | 1009.8 |
| 20260504204431 | 74 | 309 | 0.9 | 16.5 | 0.00 | 0.00 | 0.00 | 44 | 1009.8 |
| 20260504204350 | 74 | 261 | 5.2 | 16.5 | 0.00 | 0.00 | 0.00 | 44 | 1009.9 |
| 20260504204228 | 74 | 301 | 7.8 | 16.5 | 0.00 | 0.00 | 0.00 | 44 | 1009.9 |
| 20260504204126 | 74 | 322 | 7.0 | 16.5 | 0.00 | 0.00 | 0.00 | 44 | 1009.9 |
| 20260504204024 | 74 | 301 | 5.2 | 16.5 | 0.00 | 0.00 | 0.00 | 45 | 1009.9 |
| 20260504203944 | 74 | 329 | 4.3 | 16.5 | 0.00 | 0.00 | 0.00 | 44 | 1009.9 |
| 20260504203902 | 74 | 294 | 7.8 | 16.5 | 0.00 | 0.00 | 0.00 | 45 | 1009.9 |
| 20260504203739 | 74 | 288 | 6.1 | 12.2 | 0.00 | 0.00 | 0.00 | 45 | 1009.9 |
| 20260504203642 | 74 | 320 | 5.2 | 11.3 | 0.00 | 0.00 | 0.00 | 44 | 1009.9 |
| 20260504203539 | 74 | 302 | 5.2 | 11.3 | 0.00 | 0.00 | 0.00 | 44 | 1009.9 |
| 20260504203437 | 74 | 328 | 2.6 | 11.3 | 0.00 | 0.00 | 0.00 | 43 | 1009.9 |
| 20260504203336 | 74 | 268 | 4.3 | 11.3 | 0.00 | 0.00 | 0.00 | 44 | 1009.9 |
| 20260504203256 | 74 | 296 | 5.2 | 13.9 | 0.00 | 0.00 | 0.00 | 44 | 1009.9 |
| 20260504203226 | 74 | 323 | 6.1 | 13.9 | 0.00 | 0.00 | 0.00 | 44 | 1009.9 |
| 20260504203103 | 74 | 320 | 7.0 | 13.9 | 0.00 | 0.00 | 0.00 | 44 | 1009.9 |
| 20260504202924 | 74 | 326 | 4.3 | 15.6 | 0.00 | 0.00 | 0.00 | 44 | 1009.9 |
| 20260504202842 | 74 | 335 | 6.1 | 15.6 | 0.00 | 0.00 | 0.00 | 43 | 1010.1 |
| 20260504202741 | 74 | 271 | 6.1 | 15.6 | 0.00 | 0.00 | 0.00 | 44 | 1010.1 |
| 20260504202639 | 74 | 272 | 2.6 | 15.6 | 0.00 | 0.00 | 0.00 | 46 | 1010.1 |
| 20260504202538 | 74 | 230 | 5.2 | 15.6 | 0.00 | 0.00 | 0.00 | 45 | 1010.1 |
| 20260504202456 | 74 | 288 | 7.0 | 15.6 | 0.00 | 0.00 | 0.00 | 44 | 1010.1 |
| 20260504202334 | 74 | 291 | 4.3 | 15.6 | 0.00 | 0.00 | 0.00 | 44 | 1010.1 |
| 20260504202232 | 74 | 257 | 7.8 | 15.6 | 0.00 | 0.00 | 0.00 | 46 | 1010.1 |
| 20260504202155 | 74 | 328 | 9.6 | 15.6 | 0.00 | 0.00 | 0.00 | 46 | 1010.1 |
| 20260504202032 | 74 | 305 | 7.0 | 14.8 | 0.00 | 0.00 | 0.00 | 46 | 1010.1 |
| 20260504201932 | 74 | 315 | 7.0 | 13.0 | 0.00 | 0.00 | 0.00 | 47 | 1010.1 |
| 20260504201831 | 74 | 301 | 6.1 | 13.9 | 0.00 | 0.00 | 0.00 | 47 | 1010.1 |
| 20260504201656 | 74 | 329 | 1.7 | 13.9 | 0.00 | 0.00 | 0.00 | 46 | 1010.1 |
| 20260504201533 | 74 | 309 | 1.7 | 13.9 | 0.00 | 0.00 | 0.00 | 46 | 1010.1 |
| 20260504201431 | 74 | 229 | 3.5 | 13.9 | 0.00 | 0.00 | 0.00 | 46 | 1010.1 |
| 20260504201335 | 74 | 325 | 3.5 | 13.9 | 0.00 | 0.00 | 0.00 | 46 | 1010.0 |
| 20260504201234 | 74 | 330 | 3.5 | 13.9 | 0.00 | 0.00 | 0.00 | 46 | 1010.0 |
| 20260504201132 | 74 | 330 | 3.5 | 13.9 | 0.00 | 0.00 | 0.00 | 45 | 1010.0 |
| 20260504201031 | 74 | 329 | 6.1 | 13.9 | 0.00 | 0.00 | 0.00 | 46 | 1010.0 |
| 20260504200930 | 74 | 292 | 8.7 | 13.9 | 0.00 | 0.00 | 0.00 | 45 | 1010.0 |
| 20260504200849 | 74 | 308 | 8.7 | 13.9 | 0.00 | 0.00 | 0.00 | 46 | 1010.0 |
| 20260504200725 | 74 | 329 | 7.8 | 15.6 | 0.00 | 0.00 | 0.00 | 45 | 1010.0 |
| 20260504200628 | 74 | 329 | 8.7 | 15.6 | 0.00 | 0.00 | 0.00 | 46 | 1010.0 |
| 20260504200526 | 74 | 322 | 10.4 | 15.6 | 0.00 | 0.00 | 0.00 | 46 | 1010.0 |
| 20260504200424 | 74 | 315 | 8.7 | 15.6 | 0.00 | 0.00 | 0.00 | 47 | 1010.0 |
| 20260504200326 | 74 | 315 | 7.0 | 15.6 | 0.00 | 0.00 | 0.00 | 47 | 1010.0 |
| 20260504200225 | 74 | 304 | 8.7 | 15.6 | 0.00 | 0.00 | 0.00 | 46 | 1010.0 |
| 20260504200156 | 74 | 312 | 7.0 | 15.6 | 0.00 | 0.00 | 0.00 | 46 | 1010.0 |
| 20260504200032 | 74 | 302 | 4.3 | 15.6 | 0.00 | 0.00 | 0.00 | 46 | 1010.0 |
| 20260504195930 | 74 | 315 | 7.0 | 15.6 | 0.00 | 0.00 | 0.00 | 47 | 1010.0 |
| 20260504195832 | 74 | 308 | 4.3 | 12.2 | 0.00 | 0.00 | 0.00 | 46 | 1010.2 |
| 20260504195751 | 74 | 256 | 3.5 | 10.4 | 0.00 | 0.00 | 0.00 | 46 | 1010.2 |
| 20260504195709 | 75 | 329 | 7.0 | 13.9 | 0.00 | 0.00 | 0.00 | 46 | 1010.2 |
| 20260504195605 | 75 | 316 | 6.1 | 13.9 | 0.00 | 0.00 | 0.00 | 46 | 1010.2 |
| 20260504195441 | 75 | 272 | 4.3 | 13.9 | 0.00 | 0.00 | 0.00 | 46 | 1010.2 |
| 20260504195340 | 75 | 328 | 3.5 | 13.9 | 0.00 | 0.00 | 0.00 | 46 | 1010.2 |
| 20260504195239 | 75 | 320 | 0.9 | 15.6 | 0.00 | 0.00 | 0.00 | 46 | 1010.2 |
| 20260504195136 | 75 | 291 | 1.7 | 15.6 | 0.00 | 0.00 | 0.00 | 47 | 1010.2 |
| 20260504195039 | 75 | 315 | 5.2 | 15.6 | 0.00 | 0.00 | 0.00 | 46 | 1010.2 |
| 20260504194937 | 75 | 299 | 7.0 | 15.6 | 0.00 | 0.00 | 0.00 | 45 | 1010.2 |
| 20260504194855 | 75 | 320 | 8.7 | 15.6 | 0.00 | 0.00 | 0.00 | 46 | 1010.2 |
| 20260504194753 | 75 | 323 | 7.8 | 15.6 | 0.00 | 0.00 | 0.00 | 46 | 1010.2 |
| 20260504194721 | 75 | 320 | 6.1 | 15.6 | 0.00 | 0.00 | 0.00 | 45 | 1010.2 |
| 20260504194538 | 75 | 287 | 5.2 | 15.6 | 0.00 | 0.00 | 0.00 | 44 | 1010.2 |
| 20260504194436 | 75 | 280 | 7.8 | 15.6 | 0.00 | 0.00 | 0.00 | 45 | 1010.2 |
| 20260504194334 | 75 | 328 | 5.2 | 11.3 | 0.00 | 0.00 | 0.00 | 45 | 1010.4 |
| 20260504194238 | 75 | 239 | 3.5 | 11.3 | 0.00 | 0.00 | 0.00 | 44 | 1010.4 |
| 20260504194156 | 75 | 325 | 7.0 | 14.8 | 0.00 | 0.00 | 0.00 | 44 | 1010.4 |
| 20260504194054 | 75 | 301 | 5.2 | 14.8 | 0.00 | 0.00 | 0.00 | 44 | 1010.4 |
| 20260504193930 | 75 | 328 | 6.1 | 14.8 | 0.00 | 0.00 | 0.00 | 44 | 1010.4 |
| 20260504193829 | 75 | 323 | 8.7 | 14.8 | 0.00 | 0.00 | 0.00 | 44 | 1010.4 |
| 20260504193751 | 75 | 292 | 9.6 | 14.8 | 0.00 | 0.00 | 0.00 | 45 | 1010.4 |
| 20260504193628 | 75 | 289 | 7.8 | 14.8 | 0.00 | 0.00 | 0.00 | 45 | 1010.4 |
| 20260504193527 | 75 | 304 | 0.9 | 14.8 | 0.00 | 0.00 | 0.00 | 44 | 1010.4 |
| 20260504193430 | 75 | 319 | 3.5 | 14.8 | 0.00 | 0.00 | 0.00 | 43 | 1010.4 |
| 20260504193349 | 75 | 320 | 8.7 | 14.8 | 0.00 | 0.00 | 0.00 | 45 | 1010.4 |
| 20260504193227 | 75 | 323 | 4.3 | 13.9 | 0.00 | 0.00 | 0.00 | 45 | 1010.4 |
| 20260504193157 | 75 | 302 | 3.5 | 13.9 | 0.00 | 0.00 | 0.00 | 45 | 1010.4 |
| 20260504193033 | 75 | 320 | 7.0 | 14.8 | 0.00 | 0.00 | 0.00 | 44 | 1010.4 |
| 20260504192931 | 75 | 296 | 5.2 | 14.8 | 0.00 | 0.00 | 0.00 | 44 | 1010.4 |
| 20260504192850 | 75 | 309 | 8.7 | 14.8 | 0.00 | 0.00 | 0.00 | 44 | 1010.7 |
| 20260504192727 | 75 | 325 | 6.1 | 14.8 | 0.00 | 0.00 | 0.00 | 44 | 1010.7 |
| 20260504192629 | 75 | 281 | 7.0 | 14.8 | 0.00 | 0.00 | 0.00 | 44 | 1010.7 |
| 20260504192527 | 75 | 315 | 3.5 | 14.8 | 0.00 | 0.00 | 0.00 | 44 | 1010.7 |
| 20260504192424 | 75 | 304 | 5.2 | 14.8 | 0.00 | 0.00 | 0.00 | 43 | 1010.7 |
| 20260504192344 | 75 | 311 | 8.7 | 14.8 | 0.00 | 0.00 | 0.00 | 44 | 1010.7 |
| 20260504192304 | 75 | 329 | 10.4 | 14.8 | 0.00 | 0.00 | 0.00 | 44 | 1010.7 |
| 20260504192141 | 75 | 333 | 8.7 | 14.8 | 0.00 | 0.00 | 0.00 | 44 | 1010.7 |
| 20260504192059 | 75 | 326 | 7.8 | 14.8 | 0.00 | 0.00 | 0.00 | 43 | 1010.7 |
| 20260504191936 | 75 | 322 | 5.2 | 14.8 | 0.00 | 0.00 | 0.00 | 44 | 1010.7 |
| 20260504191839 | 75 | 328 | 3.5 | 14.8 | 0.00 | 0.00 | 0.00 | 43 | 1010.7 |
| 20260504191739 | 75 | 326 | 5.2 | 15.6 | 0.00 | 0.00 | 0.00 | 43 | 1010.7 |
| 20260504191647 | 75 | 329 | 5.2 | 15.6 | 0.00 | 0.00 | 0.00 | 43 | 1010.7 |
| 20260504191545 | 75 | 329 | 3.5 | 15.6 | 0.00 | 0.00 | 0.00 | 44 | 1010.7 |
| 20260504191442 | 75 | 298 | 5.2 | 15.6 | 0.00 | 0.00 | 0.00 | 44 | 1010.7 |
| 20260504191340 | 75 | 330 | 10.4 | 15.6 | 0.00 | 0.00 | 0.00 | 44 | 1010.8 |
| 20260504191239 | 75 | 299 | 5.2 | 15.6 | 0.00 | 0.00 | 0.00 | 43 | 1010.8 |
| 20260504191136 | 75 | 299 | 2.6 | 15.6 | 0.00 | 0.00 | 0.00 | 44 | 1010.8 |
| 20260504191034 | 75 | 288 | 7.8 | 15.6 | 0.00 | 0.00 | 0.00 | 43 | 1010.8 |
| 20260504190936 | 75 | 305 | 9.6 | 15.6 | 0.00 | 0.00 | 0.00 | 43 | 1010.8 |
| 20260504190835 | 75 | 328 | 9.6 | 14.8 | 0.00 | 0.00 | 0.00 | 44 | 1010.8 |
| 20260504190733 | 75 | 333 | 8.7 | 14.8 | 0.00 | 0.00 | 0.00 | 44 | 1010.8 |
| 20260504190630 | 75 | 256 | 2.6 | 13.9 | 0.00 | 0.00 | 0.00 | 44 | 1010.8 |
| 20260504190529 | 75 | 326 | 7.8 | 13.9 | 0.00 | 0.00 | 0.00 | 44 | 1010.8 |
| 20260504190432 | 75 | 295 | 8.7 | 13.9 | 0.00 | 0.00 | 0.00 | 45 | 1010.8 |
| 20260504190350 | 75 | 316 | 3.5 | 11.3 | 0.00 | 0.00 | 0.00 | 46 | 1010.8 |
| 20260504190303 | 75 | 329 | 7.0 | 11.3 | 0.00 | 0.00 | 0.00 | 44 | 1010.8 |
| 20260504190152 | 75 | 319 | 5.2 | 11.3 | 0.00 | 0.00 | 0.00 | 45 | 1010.8 |
| 20260504190028 | 75 | 316 | 7.0 | 11.3 | 0.00 | 0.00 | 0.00 | 46 | 1010.8 |
| 20260504185927 | 76 | 271 | 0.9 | 9.6 | 0.00 | 0.00 | 0.00 | 47 | 1010.8 |
| 20260504185824 | 76 | 323 | 5.2 | 10.4 | 0.00 | 0.00 | 0.00 | 47 | 1011.1 |
| 20260504185741 | 76 | 315 | 5.2 | 10.4 | 0.00 | 0.00 | 0.00 | 47 | 1011.1 |
| 20260504185640 | 76 | 320 | 1.7 | 10.4 | 0.00 | 0.00 | 0.00 | 44 | 1011.1 |
| 20260504185538 | 76 | 328 | 1.7 | 10.4 | 0.00 | 0.00 | 0.00 | 44 | 1011.1 |
| 20260504185441 | 76 | 288 | 0.9 | 10.4 | 0.00 | 0.00 | 0.00 | 44 | 1011.1 |
| 20260504185340 | 76 | 323 | 2.6 | 10.4 | 0.00 | 0.00 | 0.00 | 45 | 1011.1 |
| 20260504185258 | 76 | 319 | 5.2 | 12.2 | 0.00 | 0.00 | 0.00 | 44 | 1011.1 |
| 20260504185155 | 76 | 299 | 2.6 | 12.2 | 0.00 | 0.00 | 0.00 | 45 | 1011.1 |
| 20260504185033 | 76 | 288 | 7.0 | 12.2 | 0.00 | 0.00 | 0.00 | 45 | 1011.1 |
| 20260504184951 | 76 | 326 | 6.1 | 12.2 | 0.00 | 0.00 | 0.00 | 46 | 1011.1 |
| 20260504184830 | 75 | 304 | 5.2 | 12.2 | 0.00 | 0.00 | 0.00 | 47 | 1011.1 |
| 20260504184748 | 75 | 239 | 3.5 | 12.2 | 0.00 | 0.00 | 0.00 | 45 | 1011.1 |
| 20260504184656 | 75 | 263 | 3.5 | 12.2 | 0.00 | 0.00 | 0.00 | 45 | 1011.1 |
| 20260504184538 | 75 | 272 | 2.6 | 12.2 | 0.00 | 0.00 | 0.00 | 44 | 1011.1 |
| 20260504184437 | 75 | 275 | 5.2 | 12.2 | 0.00 | 0.00 | 0.00 | 44 | 1011.1 |
| 20260504184336 | 75 | 263 | 7.0 | 11.3 | 0.00 | 0.00 | 0.00 | 44 | 1011.3 |
| 20260504184255 | 75 | 311 | 8.7 | 11.3 | 0.00 | 0.00 | 0.00 | 46 | 1011.3 |
| 20260504184132 | 75 | 322 | 7.0 | 14.8 | 0.00 | 0.00 | 0.00 | 47 | 1011.3 |
| 20260504184031 | 75 | 322 | 8.7 | 14.8 | 0.00 | 0.00 | 0.00 | 45 | 1011.3 |
| 20260504183930 | 75 | 305 | 5.2 | 14.8 | 0.00 | 0.00 | 0.00 | 46 | 1011.3 |
| 20260504183832 | 75 | 298 | 3.5 | 14.8 | 0.00 | 0.00 | 0.00 | 45 | 1011.3 |
| 20260504183729 | 75 | 311 | 5.2 | 14.8 | 0.00 | 0.00 | 0.00 | 45 | 1011.3 |
| 20260504183629 | 75 | 316 | 4.3 | 14.8 | 0.00 | 0.00 | 0.00 | 45 | 1011.3 |
| 20260504183547 | 75 | 305 | 3.5 | 14.8 | 0.00 | 0.00 | 0.00 | 45 | 1011.3 |
| 20260504183444 | 75 | 305 | 2.6 | 14.8 | 0.00 | 0.00 | 0.00 | 45 | 1011.3 |
| 20260504183342 | 75 | 295 | 7.8 | 14.8 | 0.00 | 0.00 | 0.00 | 46 | 1011.3 |
| 20260504183301 | 75 | 299 | 7.0 | 14.8 | 0.00 | 0.00 | 0.00 | 45 | 1011.3 |
| 20260504183211 | 75 | 244 | 6.1 | 13.0 | 0.00 | 0.00 | 0.00 | 46 | 1011.3 |
| 20260504183031 | 75 | 322 | 8.7 | 13.0 | 0.00 | 0.00 | 0.00 | 46 | 1011.3 |
| 20260504182950 | 75 | 329 | 5.2 | 11.3 | 0.00 | 0.00 | 0.00 | 45 | 1011.3 |
| 20260504182827 | 75 | 289 | 2.6 | 9.6 | 0.00 | 0.00 | 0.00 | 45 | 1011.4 |
| 20260504182729 | 75 | 312 | 4.3 | 9.6 | 0.00 | 0.00 | 0.00 | 46 | 1011.4 |
| 20260504182628 | 75 | 306 | 5.2 | 9.6 | 0.00 | 0.00 | 0.00 | 47 | 1011.4 |
| 20260504182546 | 75 | 302 | 6.1 | 9.6 | 0.00 | 0.00 | 0.00 | 45 | 1011.4 |
| 20260504182505 | 75 | 272 | 5.2 | 10.4 | 0.00 | 0.00 | 0.00 | 46 | 1011.4 |
| 20260504182402 | 75 | 319 | 6.1 | 12.2 | 0.00 | 0.00 | 0.00 | 45 | 1011.4 |
| 20260504182238 | 75 | 325 | 2.6 | 12.2 | 0.00 | 0.00 | 0.00 | 45 | 1011.4 |
| 20260504182141 | 75 | 308 | 2.6 | 12.2 | 0.00 | 0.00 | 0.00 | 45 | 1011.4 |
| 20260504182039 | 75 | 319 | 1.7 | 12.2 | 0.00 | 0.00 | 0.00 | 45 | 1011.4 |
| 20260504181937 | 75 | 308 | 3.5 | 12.2 | 0.00 | 0.00 | 0.00 | 44 | 1011.4 |
| 20260504181835 | 75 | 308 | 2.6 | 12.2 | 0.00 | 0.00 | 0.00 | 44 | 1011.4 |
| 20260504181753 | 75 | 292 | 1.7 | 12.2 | 0.00 | 0.00 | 0.00 | 44 | 1011.4 |
| 20260504181723 | 75 | 275 | 5.2 | 12.2 | 0.00 | 0.00 | 0.00 | 45 | 1011.4 |
| 20260504181601 | 75 | 270 | 7.8 | 12.2 | 0.00 | 0.00 | 0.00 | 47 | 1011.4 |
| 20260504181439 | 75 | 309 | 9.6 | 12.2 | 0.00 | 0.00 | 0.00 | 47 | 1011.4 |
| 20260504181341 | 75 | 313 | 5.2 | 12.2 | 0.00 | 0.00 | 0.00 | 47 | 1011.5 |
| 20260504181241 | 75 | 271 | 2.6 | 12.2 | 0.00 | 0.00 | 0.00 | 47 | 1011.5 |
| 20260504181158 | 75 | 312 | 0.9 | 12.2 | 0.00 | 0.00 | 0.00 | 46 | 1011.5 |
| 20260504181035 | 75 | 299 | 0.9 | 12.2 | 0.00 | 0.00 | 0.00 | 45 | 1011.5 |
| 20260504180934 | 75 | 285 | 4.3 | 12.2 | 0.00 | 0.00 | 0.00 | 45 | 1011.5 |
| 20260504180832 | 75 | 329 | 6.1 | 12.2 | 0.00 | 0.00 | 0.00 | 45 | 1011.5 |
| 20260504180730 | 75 | 287 | 7.0 | 12.2 | 0.00 | 0.00 | 0.00 | 45 | 1011.5 |
| 20260504180629 | 75 | 320 | 7.8 | 12.2 | 0.00 | 0.00 | 0.00 | 45 | 1011.5 |
| 20260504180531 | 75 | 264 | 6.1 | 12.2 | 0.00 | 0.00 | 0.00 | 45 | 1011.5 |
| 20260504180429 | 75 | 301 | 4.3 | 12.2 | 0.00 | 0.00 | 0.00 | 45 | 1011.5 |
| 20260504180328 | 75 | 329 | 3.5 | 12.2 | 0.00 | 0.00 | 0.00 | 45 | 1011.5 |
| 20260504180227 | 75 | 326 | 7.0 | 12.2 | 0.00 | 0.00 | 0.00 | 45 | 1011.5 |
| 20260504180158 | 75 | 326 | 7.8 | 12.2 | 0.00 | 0.00 | 0.00 | 45 | 1011.5 |
| 20260504180054 | 75 | 291 | 7.0 | 12.2 | 0.00 | 0.00 | 0.00 | 45 | 1011.5 |
| 20260504175932 | 75 | 328 | 4.3 | 12.2 | 0.00 | 0.00 | 0.00 | 45 | 1011.5 |
| 20260504175836 | 75 | 226 | 8.7 | 12.2 | 0.00 | 0.00 | 0.00 | 45 | 1011.7 |
| 20260504175755 | 75 | 328 | 4.3 | 12.2 | 0.00 | 0.00 | 0.00 | 45 | 1011.7 |
| 20260504175631 | 75 | 328 | 4.3 | 12.2 | 0.00 | 0.00 | 0.00 | 45 | 1011.7 |
| 20260504175529 | 75 | 280 | 2.6 | 12.2 | 0.00 | 0.00 | 0.00 | 45 | 1011.7 |
| 20260504175427 | 75 | 304 | 2.6 | 12.2 | 0.00 | 0.00 | 0.00 | 45 | 1011.7 |
| 20260504175326 | 75 | 320 | 5.2 | 12.2 | 0.00 | 0.00 | 0.00 | 45 | 1011.7 |
| 20260504175224 | 75 | 313 | 4.3 | 12.2 | 0.00 | 0.00 | 0.00 | 45 | 1011.7 |
| 20260504175122 | 75 | 298 | 7.0 | 12.2 | 0.00 | 0.00 | 0.00 | 44 | 1011.7 |
| 20260504175029 | 75 | 315 | 7.0 | 13.9 | 0.00 | 0.00 | 0.00 | 44 | 1011.7 |
| 20260504174928 | 75 | 329 | 6.1 | 14.8 | 0.00 | 0.00 | 0.00 | 44 | 1011.7 |
| 20260504174826 | 75 | 304 | 4.3 | 14.8 | 0.00 | 0.00 | 0.00 | 44 | 1011.7 |
| 20260504174736 | 75 | 318 | 1.7 | 14.8 | 0.00 | 0.00 | 0.00 | 45 | 1011.7 |
| 20260504174645 | 75 | 295 | 5.2 | 14.8 | 0.00 | 0.00 | 0.00 | 44 | 1011.7 |
| 20260504174524 | 75 | 304 | 4.3 | 14.8 | 0.00 | 0.00 | 0.00 | 46 | 1011.7 |
| 20260504174443 | 75 | 288 | 5.2 | 14.8 | 0.00 | 0.00 | 0.00 | 46 | 1011.7 |
| 20260504174324 | 75 | 298 | 7.0 | 14.8 | 0.00 | 0.00 | 0.00 | 46 | 1012.0 |
| 20260504174243 | 75 | 328 | 7.0 | 14.8 | 0.00 | 0.00 | 0.00 | 47 | 1012.0 |
| 20260504174142 | 75 | 316 | 8.7 | 14.8 | 0.00 | 0.00 | 0.00 | 46 | 1012.0 |
| 20260504174040 | 75 | 329 | 7.0 | 14.8 | 0.00 | 0.00 | 0.00 | 45 | 1012.0 |
| 20260504173938 | 75 | 312 | 5.2 | 14.8 | 0.00 | 0.00 | 0.00 | 44 | 1012.0 |
| 20260504173837 | 75 | 304 | 5.2 | 12.2 | 0.00 | 0.00 | 0.00 | 47 | 1012.0 |
| 20260504173756 | 75 | 333 | 3.5 | 12.2 | 0.00 | 0.00 | 0.00 | 47 | 1012.0 |
| 20260504173639 | 75 | 315 | 4.3 | 12.2 | 0.00 | 0.00 | 0.00 | 46 | 1012.0 |
| 20260504173541 | 75 | 298 | 4.3 | 12.2 | 0.00 | 0.00 | 0.00 | 46 | 1012.0 |
| 20260504173439 | 75 | 329 | 4.3 | 12.2 | 0.00 | 0.00 | 0.00 | 47 | 1012.0 |
| 20260504173335 | 74 | 325 | 6.1 | 14.8 | 0.00 | 0.00 | 0.00 | 48 | 1012.0 |
| 20260504173254 | 74 | 316 | 5.2 | 14.8 | 0.00 | 0.00 | 0.00 | 47 | 1012.0 |
| 20260504173203 | 74 | 322 | 6.1 | 14.8 | 0.00 | 0.00 | 0.00 | 47 | 1012.0 |
| 20260504173038 | 74 | 292 | 7.0 | 14.8 | 0.00 | 0.00 | 0.00 | 45 | 1012.0 |
| 20260504172958 | 74 | 329 | 2.6 | 14.8 | 0.00 | 0.00 | 0.00 | 47 | 1012.0 |
| 20260504172834 | 74 | 253 | 1.7 | 14.8 | 0.00 | 0.00 | 0.00 | 47 | 1012.2 |
| 20260504172758 | 74 | 329 | 3.5 | 14.8 | 0.00 | 0.00 | 0.00 | 46 | 1012.2 |
| 20260504172638 | 74 | 326 | 5.2 | 14.8 | 0.00 | 0.00 | 0.00 | 47 | 1012.2 |
| 20260504172538 | 74 | 285 | 9.6 | 14.8 | 0.00 | 0.00 | 0.00 | 47 | 1012.2 |
| 20260504172457 | 74 | 325 | 9.6 | 14.8 | 0.00 | 0.00 | 0.00 | 47 | 1012.2 |
| 20260504172335 | 74 | 319 | 4.3 | 11.3 | 0.00 | 0.00 | 0.00 | 47 | 1012.2 |
| 20260504172232 | 74 | 301 | 2.6 | 11.3 | 0.00 | 0.00 | 0.00 | 46 | 1012.2 |
| 20260504172131 | 74 | 329 | 1.7 | 12.2 | 0.00 | 0.00 | 0.00 | 45 | 1012.2 |
| 20260504172032 | 74 | 311 | 2.6 | 12.2 | 0.00 | 0.00 | 0.00 | 46 | 1012.2 |
| 20260504171930 | 74 | 319 | 4.3 | 12.2 | 0.00 | 0.00 | 0.00 | 46 | 1012.2 |
| 20260504171829 | 74 | 330 | 3.5 | 12.2 | 0.00 | 0.00 | 0.00 | 45 | 1012.2 |
| 20260504171739 | 74 | 319 | 7.0 | 12.2 | 0.00 | 0.00 | 0.00 | 45 | 1012.2 |
| 20260504171652 | 74 | 312 | 5.2 | 12.2 | 0.00 | 0.00 | 0.00 | 46 | 1012.2 |
| 20260504171529 | 74 | 328 | 4.3 | 12.2 | 0.00 | 0.00 | 0.00 | 46 | 1012.2 |
| 20260504171426 | 74 | 296 | 7.0 | 12.2 | 0.00 | 0.00 | 0.00 | 46 | 1012.2 |
| 20260504171329 | 74 | 328 | 7.0 | 12.2 | 0.00 | 0.00 | 0.00 | 46 | 1012.4 |
| 20260504171247 | 74 | 325 | 4.3 | 10.4 | 0.00 | 0.00 | 0.00 | 46 | 1012.4 |
| 20260504171125 | 74 | 291 | 3.5 | 10.4 | 0.00 | 0.00 | 0.00 | 46 | 1012.4 |
| 20260504171043 | 74 | 291 | 5.2 | 10.4 | 0.00 | 0.00 | 0.00 | 46 | 1012.4 |
| 20260504170941 | 74 | 280 | 4.3 | 12.2 | 0.00 | 0.00 | 0.00 | 47 | 1012.4 |
| 20260504170839 | 74 | 326 | 5.2 | 12.2 | 0.00 | 0.00 | 0.00 | 46 | 1012.4 |
| 20260504170737 | 74 | 318 | 3.5 | 12.2 | 0.00 | 0.00 | 0.00 | 47 | 1012.4 |
| 20260504170636 | 74 | 309 | 5.2 | 12.2 | 0.00 | 0.00 | 0.00 | 46 | 1012.4 |
| 20260504170554 | 74 | 318 | 3.5 | 12.2 | 0.00 | 0.00 | 0.00 | 45 | 1012.4 |
| 20260504170436 | 74 | 304 | 3.5 | 12.2 | 0.00 | 0.00 | 0.00 | 46 | 1012.4 |
| 20260504170333 | 74 | 319 | 5.2 | 12.2 | 0.00 | 0.00 | 0.00 | 47 | 1012.4 |
| 20260504170242 | 74 | 328 | 4.3 | 12.2 | 0.00 | 0.00 | 0.00 | 47 | 1012.4 |
| 20260504170153 | 74 | 323 | 6.1 | 12.2 | 0.00 | 0.00 | 0.00 | 46 | 1012.4 |
| 20260504160332 | 70 | 257 | 6.1 | 13.9 | 0.00 | 0.00 | 0.00 | 50 | 1013.2 |
| 20260504160240 | 70 | 302 | 7.0 | 13.9 | 0.00 | 0.00 | 0.00 | 50 | 1013.2 |
| 20260504160151 | 70 | 304 | 5.2 | 13.9 | 0.00 | 0.00 | 0.00 | 50 | 1013.2 |
| 20260504151141 | 65 | 313 | 8.7 | 17.4 | 0.00 | 0.00 | 0.00 | 55 | 1013.7 |
| 20260504151041 | 65 | 281 | 7.0 | 17.4 | 0.00 | 0.00 | 0.00 | 54 | 1013.7 |
| 20260504150959 | 65 | 295 | 5.2 | 17.4 | 0.00 | 0.00 | 0.00 | 55 | 1013.7 |
| 20260504150836 | 65 | 288 | 6.1 | 17.4 | 0.00 | 0.00 | 0.00 | 55 | 1013.7 |
| 20260504150737 | 65 | 271 | 7.8 | 17.4 | 0.00 | 0.00 | 0.00 | 54 | 1013.7 |
| 20260504150634 | 65 | 315 | 10.4 | 17.4 | 0.00 | 0.00 | 0.00 | 54 | 1013.7 |
| 20260504150532 | 65 | 298 | 7.8 | 17.4 | 0.00 | 0.00 | 0.00 | 55 | 1013.7 |
| 20260504150430 | 65 | 305 | 7.0 | 17.4 | 0.00 | 0.00 | 0.00 | 55 | 1013.7 |
| 20260504150327 | 65 | 285 | 8.7 | 17.4 | 0.00 | 0.00 | 0.00 | 55 | 1013.7 |
| 20260504150256 | 64 | 313 | 9.6 | 17.4 | 0.00 | 0.00 | 0.00 | 54 | 1013.7 |
| 20260504150146 | 64 | 294 | 11.3 | 17.4 | 0.00 | 0.00 | 0.00 | 55 | 1013.7 |
| 20260504141303 | 62 | 298 | 9.6 | 16.5 | 0.00 | 0.00 | 0.00 | 56 | 1013.4 |
| 20260504141141 | 61 | 254 | 7.8 | 15.6 | 0.00 | 0.00 | 0.00 | 56 | 1013.4 |
| 20260504141039 | 61 | 277 | 9.6 | 15.6 | 0.00 | 0.00 | 0.00 | 56 | 1013.4 |
| 20260504140941 | 61 | 304 | 9.6 | 14.8 | 0.00 | 0.00 | 0.00 | 56 | 1013.4 |
| 20260504140838 | 61 | 302 | 8.7 | 14.8 | 0.00 | 0.00 | 0.00 | 56 | 1013.4 |
| 20260504140736 | 61 | 274 | 7.8 | 14.8 | 0.00 | 0.00 | 0.00 | 56 | 1013.4 |
| 20260504140634 | 61 | 302 | 7.8 | 15.6 | 0.00 | 0.00 | 0.00 | 56 | 1013.4 |
| 20260504140533 | 61 | 323 | 6.1 | 18.2 | 0.00 | 0.00 | 0.00 | 56 | 1013.4 |
| 20260504140432 | 61 | 305 | 7.0 | 18.2 | 0.00 | 0.00 | 0.00 | 56 | 1013.4 |
| 20260504140332 | 61 | 289 | 7.8 | 18.2 | 0.00 | 0.00 | 0.00 | 56 | 1013.4 |
| 20260504140234 | 61 | 281 | 7.0 | 18.2 | 0.00 | 0.00 | 0.00 | 56 | 1013.4 |
| 20260504140202 | 61 | 282 | 7.0 | 18.2 | 0.00 | 0.00 | 0.00 | 56 | 1013.4 |
| 20260504130759 | 59 | 322 | 10.4 | 20.9 | 0.00 | 0.00 | 0.00 | 54 | 1013.1 |
| 20260504130637 | 59 | 294 | 11.3 | 20.9 | 0.00 | 0.00 | 0.00 | 54 | 1013.1 |
| 20260504130555 | 59 | 319 | 10.4 | 20.9 | 0.00 | 0.00 | 0.00 | 54 | 1013.1 |
| 20260504130433 | 59 | 267 | 8.7 | 20.9 | 0.00 | 0.00 | 0.00 | 54 | 1013.1 |
| 20260504130330 | 59 | 232 | 5.2 | 20.9 | 0.00 | 0.00 | 0.00 | 55 | 1013.1 |
| 20260504130259 | 59 | 270 | 13.0 | 21.7 | 0.00 | 0.00 | 0.00 | 55 | 1013.1 |
| 20260504130152 | 59 | 268 | 10.4 | 21.7 | 0.00 | 0.00 | 0.00 | 54 | 1013.1 |
| 20260504120241 | 57 | 309 | 12.2 | 20.9 | 0.00 | 0.00 | 0.00 | 56 | 1012.6 |
| 20260504120150 | 57 | 292 | 13.0 | 20.9 | 0.00 | 0.00 | 0.00 | 56 | 1012.6 |
| 20260504110639 | 57 | 301 | 12.2 | 21.7 | 0.00 | 0.00 | 0.00 | 54 | 1013.1 |
| 20260504110541 | 57 | 312 | 12.2 | 21.7 | 0.00 | 0.00 | 0.00 | 54 | 1013.1 |
| 20260504110439 | 57 | 301 | 11.3 | 21.7 | 0.00 | 0.00 | 0.00 | 54 | 1013.1 |
| 20260504110337 | 57 | 315 | 12.2 | 21.7 | 0.00 | 0.00 | 0.00 | 55 | 1013.1 |
| 20260504110239 | 57 | 330 | 9.6 | 21.7 | 0.00 | 0.00 | 0.00 | 55 | 1013.1 |
| 20260504110209 | 57 | 267 | 11.3 | 21.7 | 0.00 | 0.00 | 0.00 | 55 | 1013.1 |
| 20260504100530 | 57 | 274 | 11.3 | 22.6 | 0.00 | 0.00 | 0.00 | 55 | 1011.9 |
| 20260504100329 | 57 | 299 | 16.5 | 22.6 | 0.00 | 0.00 | 0.00 | 55 | 1011.9 |
| 20260504100239 | 57 | 272 | 9.6 | 20.9 | 0.00 | 0.00 | 0.00 | 55 | 1011.9 |
| 20260504100149 | 57 | 288 | 9.6 | 20.9 | 0.00 | 0.00 | 0.00 | 54 | 1011.9 |
| 20260504081931 | 57 | 281 | 7.0 | 21.7 | 0.00 | 0.00 | 0.00 | 52 | 1012.0 |
| 20260504081831 | 57 | 274 | 13.0 | 21.7 | 0.00 | 0.00 | 0.00 | 52 | 1012.0 |
| 20260504081739 | 57 | 261 | 7.8 | 21.7 | 0.00 | 0.00 | 0.00 | 52 | 1012.0 |
| 20260504081647 | 57 | 294 | 10.4 | 21.7 | 0.00 | 0.00 | 0.00 | 52 | 1012.0 |
| 20260504081525 | 57 | 308 | 10.4 | 21.7 | 0.00 | 0.00 | 0.00 | 52 | 1012.0 |
| 20260504081444 | 57 | 308 | 9.6 | 21.7 | 0.00 | 0.00 | 0.00 | 52 | 1012.0 |
| 20260504081406 | 57 | 267 | 12.2 | 21.7 | 0.00 | 0.00 | 0.00 | 52 | 1012.1 |
| 20260504081304 | 57 | 313 | 12.2 | 21.7 | 0.00 | 0.00 | 0.00 | 52 | 1012.1 |
| 20260504081142 | 57 | 268 | 10.4 | 20.9 | 0.00 | 0.00 | 0.00 | 52 | 1012.1 |
| 20260504081040 | 57 | 260 | 7.0 | 20.9 | 0.00 | 0.00 | 0.00 | 52 | 1012.1 |
| 20260504080938 | 57 | 332 | 7.0 | 20.9 | 0.00 | 0.00 | 0.00 | 52 | 1012.1 |
| 20260504080856 | 57 | 274 | 7.8 | 20.9 | 0.00 | 0.00 | 0.00 | 52 | 1012.1 |
| 20260504080732 | 57 | 294 | 7.8 | 20.9 | 0.00 | 0.00 | 0.00 | 52 | 1012.1 |
| 20260504080630 | 57 | 312 | 12.2 | 20.9 | 0.00 | 0.00 | 0.00 | 52 | 1012.1 |
| 20260504080531 | 57 | 288 | 9.6 | 20.9 | 0.00 | 0.00 | 0.00 | 51 | 1012.1 |
| 20260504080431 | 57 | 251 | 13.0 | 20.9 | 0.00 | 0.00 | 0.00 | 51 | 1012.1 |
| 20260504080328 | 57 | 315 | 8.7 | 20.9 | 0.00 | 0.00 | 0.00 | 52 | 1012.1 |
| 20260504080227 | 57 | 304 | 10.4 | 20.9 | 0.00 | 0.00 | 0.00 | 51 | 1012.1 |
| 20260504070355 | 57 | 287 | 9.6 | 16.5 | 0.00 | 0.00 | 0.00 | 52 | 1013.2 |
| 20260504070232 | 57 | 289 | 8.7 | 16.5 | 0.00 | 0.00 | 0.00 | 51 | 1013.2 |
| 20260504070203 | 57 | 268 | 8.7 | 16.5 | 0.00 | 0.00 | 0.00 | 52 | 1013.2 |
| 20260504060226 | 57 | 294 | 6.1 | 14.8 | 0.00 | 0.00 | 0.00 | 52 | 1013.0 |
| 20260504050738 | 57 | 325 | 5.2 | 13.9 | 0.00 | 0.00 | 0.00 | 51 | 1013.5 |
| 20260504050636 | 57 | 275 | 7.0 | 13.9 | 0.00 | 0.00 | 0.00 | 51 | 1013.5 |
| 20260504050553 | 57 | 288 | 5.2 | 13.9 | 0.00 | 0.00 | 0.00 | 52 | 1013.5 |
| 20260504050434 | 57 | 306 | 5.2 | 13.9 | 0.00 | 0.00 | 0.00 | 51 | 1013.5 |
| 20260504050335 | 57 | 247 | 6.1 | 13.9 | 0.00 | 0.00 | 0.00 | 52 | 1013.5 |
| 20260504050235 | 57 | 312 | 7.8 | 13.9 | 0.00 | 0.00 | 0.00 | 52 | 1013.5 |
| 20260504050205 | 57 | 199 | 7.8 | 13.9 | 0.00 | 0.00 | 0.00 | 52 | 1013.5 |
| 20260504045938 | 57 | 285 | 6.1 | 13.9 | 0.00 | 0.00 | 0.00 | 51 | 1013.5 |
| 20260504045836 | 57 | 295 | 5.2 | 13.9 | 0.00 | 0.00 | 0.00 | 51 | 1013.5 |
| 20260504045743 | 57 | 294 | 7.8 | 14.8 | 0.00 | 0.00 | 0.00 | 51 | 1013.5 |
| 20260504045641 | 57 | 296 | 8.7 | 14.8 | 0.00 | 0.00 | 0.00 | 50 | 1013.5 |
| 20260504045540 | 57 | 332 | 7.0 | 14.8 | 0.00 | 0.00 | 0.00 | 51 | 1013.5 |
| 20260504045436 | 57 | 319 | 7.8 | 14.8 | 0.00 | 0.00 | 0.00 | 51 | 1013.5 |
| 20260504045333 | 57 | 301 | 7.0 | 14.8 | 0.00 | 0.00 | 0.00 | 51 | 1013.5 |
| 20260504045231 | 57 | 271 | 6.1 | 14.8 | 0.00 | 0.00 | 0.00 | 51 | 1013.5 |
| 20260504045150 | 57 | 274 | 7.0 | 14.8 | 0.00 | 0.00 | 0.00 | 50 | 1013.5 |
| 20260504045051 | 57 | 287 | 8.7 | 14.8 | 0.00 | 0.00 | 0.00 | 51 | 1013.5 |
| 20260504044949 | 57 | 298 | 7.8 | 14.8 | 0.00 | 0.00 | 0.00 | 51 | 1013.5 |
| 20260504044830 | 57 | 305 | 7.0 | 12.2 | 0.00 | 0.00 | 0.00 | 52 | 1013.5 |
| 20260504044730 | 57 | 304 | 6.1 | 13.9 | 0.00 | 0.00 | 0.00 | 52 | 1013.5 |
| 20260504044701 | 57 | 229 | 6.1 | 13.9 | 0.00 | 0.00 | 0.00 | 52 | 1013.5 |
| 20260504044539 | 57 | 277 | 6.1 | 13.9 | 0.00 | 0.00 | 0.00 | 52 | 1013.5 |
| 20260504044437 | 57 | 329 | 6.1 | 13.9 | 0.00 | 0.00 | 0.00 | 52 | 1013.5 |
| 20260504044338 | 57 | 291 | 5.2 | 13.9 | 0.00 | 0.00 | 0.00 | 51 | 1013.5 |
| 20260504044237 | 57 | 277 | 4.3 | 13.9 | 0.00 | 0.00 | 0.00 | 51 | 1013.5 |
| 20260504044138 | 57 | 312 | 6.1 | 13.9 | 0.00 | 0.00 | 0.00 | 51 | 1013.5 |
| 20260504044057 | 57 | 271 | 7.0 | 13.9 | 0.00 | 0.00 | 0.00 | 51 | 1013.5 |
| 20260504043934 | 57 | 256 | 7.8 | 13.9 | 0.00 | 0.00 | 0.00 | 52 | 1013.5 |
| 20260504043856 | 57 | 291 | 6.1 | 13.9 | 0.00 | 0.00 | 0.00 | 51 | 1013.5 |
| 20260504043753 | 57 | 298 | 6.1 | 12.2 | 0.00 | 0.00 | 0.00 | 51 | 1013.5 |
| 20260504043630 | 57 | 236 | 6.1 | 12.2 | 0.00 | 0.00 | 0.00 | 51 | 1013.5 |
| 20260504043527 | 57 | 295 | 7.0 | 13.9 | 0.00 | 0.00 | 0.00 | 51 | 1013.5 |
| 20260504043426 | 57 | 281 | 6.1 | 13.9 | 0.00 | 0.00 | 0.00 | 51 | 1013.5 |
| 20260504043330 | 57 | 261 | 6.1 | 13.9 | 0.00 | 0.00 | 0.00 | 52 | 1013.5 |
| 20260504043241 | 57 | 261 | 6.1 | 13.9 | 0.00 | 0.00 | 0.00 | 51 | 1013.5 |
| 20260504043151 | 57 | 284 | 6.1 | 13.9 | 0.00 | 0.00 | 0.00 | 51 | 1013.5 |
| 20260504043027 | 57 | 281 | 5.2 | 13.9 | 0.00 | 0.00 | 0.00 | 51 | 1013.5 |
| 20260504042925 | 57 | 305 | 7.0 | 13.9 | 0.00 | 0.00 | 0.00 | 52 | 1013.5 |
| 20260504042843 | 57 | 248 | 7.0 | 13.9 | 0.00 | 0.00 | 0.00 | 51 | 1013.4 |
| 20260504042741 | 57 | 274 | 7.0 | 13.9 | 0.00 | 0.00 | 0.00 | 51 | 1013.4 |
| 20260504042639 | 57 | 294 | 7.0 | 12.2 | 0.00 | 0.00 | 0.00 | 51 | 1013.4 |
| 20260504042542 | 57 | 315 | 6.1 | 12.2 | 0.00 | 0.00 | 0.00 | 52 | 1013.4 |
| 20260504042441 | 57 | 281 | 7.0 | 12.2 | 0.00 | 0.00 | 0.00 | 52 | 1013.4 |
| 20260504042338 | 57 | 289 | 7.0 | 12.2 | 0.00 | 0.00 | 0.00 | 52 | 1013.4 |
| 20260504042237 | 57 | 287 | 6.1 | 15.6 | 0.00 | 0.00 | 0.00 | 52 | 1013.4 |
| 20260504042157 | 57 | 306 | 5.2 | 15.6 | 0.00 | 0.00 | 0.00 | 52 | 1013.4 |
| 20260504042033 | 57 | 304 | 5.2 | 15.6 | 0.00 | 0.00 | 0.00 | 52 | 1013.4 |
| 20260504041932 | 57 | 250 | 6.1 | 15.6 | 0.00 | 0.00 | 0.00 | 52 | 1013.4 |
| 20260504041835 | 57 | 294 | 5.2 | 15.6 | 0.00 | 0.00 | 0.00 | 52 | 1013.4 |
| 20260504041734 | 57 | 280 | 7.0 | 15.6 | 0.00 | 0.00 | 0.00 | 52 | 1013.4 |
| 20260504041703 | 57 | 253 | 5.2 | 15.6 | 0.00 | 0.00 | 0.00 | 51 | 1013.4 |
| 20260504041542 | 57 | 285 | 7.8 | 15.6 | 0.00 | 0.00 | 0.00 | 52 | 1013.4 |
| 20260504041442 | 57 | 296 | 9.6 | 15.6 | 0.00 | 0.00 | 0.00 | 52 | 1013.4 |
| 20260504041340 | 57 | 285 | 7.0 | 15.6 | 0.00 | 0.00 | 0.00 | 53 | 1013.6 |
| 20260504041240 | 57 | 309 | 5.2 | 15.6 | 0.00 | 0.00 | 0.00 | 53 | 1013.6 |
| 20260504041139 | 57 | 301 | 7.8 | 15.6 | 0.00 | 0.00 | 0.00 | 53 | 1013.6 |
| 20260504041041 | 57 | 258 | 7.0 | 15.6 | 0.00 | 0.00 | 0.00 | 53 | 1013.6 |
| 20260504040938 | 57 | 263 | 6.1 | 14.8 | 0.00 | 0.00 | 0.00 | 53 | 1013.6 |
| 20260504040837 | 57 | 291 | 7.8 | 14.8 | 0.00 | 0.00 | 0.00 | 53 | 1013.6 |
| 20260504040736 | 57 | 302 | 7.0 | 14.8 | 0.00 | 0.00 | 0.00 | 53 | 1013.6 |
| 20260504040634 | 57 | 261 | 7.8 | 14.8 | 0.00 | 0.00 | 0.00 | 53 | 1013.6 |
| 20260504040531 | 57 | 260 | 6.1 | 14.8 | 0.00 | 0.00 | 0.00 | 53 | 1013.6 |
| 20260504040449 | 57 | 271 | 9.6 | 14.8 | 0.00 | 0.00 | 0.00 | 53 | 1013.6 |
| 20260504040331 | 57 | 282 | 8.7 | 15.6 | 0.00 | 0.00 | 0.00 | 53 | 1013.6 |
| 20260504040241 | 57 | 257 | 7.8 | 15.6 | 0.00 | 0.00 | 0.00 | 53 | 1013.6 |
| 20260504040151 | 57 | 278 | 7.0 | 15.6 | 0.00 | 0.00 | 0.00 | 53 | 1013.6 |
| 20260504040029 | 56 | 254 | 7.0 | 15.6 | 0.00 | 0.00 | 0.00 | 53 | 1013.6 |
| 20260504035947 | 56 | 278 | 9.6 | 15.6 | 0.00 | 0.00 | 0.00 | 53 | 1013.6 |
| 20260504035844 | 56 | 315 | 8.7 | 15.6 | 0.00 | 0.00 | 0.00 | 53 | 1013.8 |
| 20260504035803 | 56 | 294 | 8.7 | 15.6 | 0.00 | 0.00 | 0.00 | 54 | 1013.8 |
| 20260504035639 | 56 | 335 | 8.7 | 15.6 | 0.00 | 0.00 | 0.00 | 54 | 1013.8 |
| 20260504035557 | 56 | 256 | 9.6 | 15.6 | 0.00 | 0.00 | 0.00 | 53 | 1013.8 |
| 20260504035454 | 56 | 281 | 9.6 | 15.6 | 0.00 | 0.00 | 0.00 | 54 | 1013.8 |
| 20260504035336 | 56 | 285 | 9.6 | 15.6 | 0.00 | 0.00 | 0.00 | 54 | 1013.8 |
| 20260504035235 | 56 | 282 | 7.0 | 15.6 | 0.00 | 0.00 | 0.00 | 54 | 1013.8 |
| 20260504035132 | 56 | 285 | 9.6 | 14.8 | 0.00 | 0.00 | 0.00 | 54 | 1013.8 |
| 20260504035052 | 56 | 285 | 8.7 | 14.8 | 0.00 | 0.00 | 0.00 | 54 | 1013.8 |
| 20260504034929 | 56 | 298 | 8.7 | 17.4 | 0.00 | 0.00 | 0.00 | 54 | 1013.8 |
| 20260504034826 | 56 | 311 | 9.6 | 17.4 | 0.00 | 0.00 | 0.00 | 54 | 1013.8 |
| 20260504034725 | 56 | 292 | 9.6 | 17.4 | 0.00 | 0.00 | 0.00 | 54 | 1013.8 |
| 20260504034659 | 56 | 306 | 9.6 | 17.4 | 0.00 | 0.00 | 0.00 | 54 | 1013.8 |
| 20260504034536 | 56 | 302 | 8.7 | 17.4 | 0.00 | 0.00 | 0.00 | 54 | 1013.8 |
| 20260504034435 | 56 | 254 | 8.7 | 17.4 | 0.00 | 0.00 | 0.00 | 54 | 1013.8 |
| 20260504034333 | 56 | 287 | 7.0 | 17.4 | 0.00 | 0.00 | 0.00 | 54 | 1013.9 |
| 20260504034232 | 56 | 251 | 7.8 | 17.4 | 0.00 | 0.00 | 0.00 | 54 | 1013.9 |
| 20260504034130 | 56 | 311 | 9.6 | 17.4 | 0.00 | 0.00 | 0.00 | 55 | 1013.9 |
| 20260504034029 | 56 | 295 | 7.0 | 14.8 | 0.00 | 0.00 | 0.00 | 54 | 1013.9 |
| 20260504033931 | 56 | 287 | 7.8 | 15.6 | 0.00 | 0.00 | 0.00 | 54 | 1013.9 |
| 20260504033854 | 56 | 288 | 9.6 | 15.6 | 0.00 | 0.00 | 0.00 | 54 | 1013.9 |
| 20260504033751 | 56 | 278 | 8.7 | 15.6 | 0.00 | 0.00 | 0.00 | 55 | 1013.9 |
| 20260504033629 | 56 | 280 | 7.0 | 15.6 | 0.00 | 0.00 | 0.00 | 55 | 1013.9 |
| 20260504033527 | 56 | 284 | 9.6 | 15.6 | 0.00 | 0.00 | 0.00 | 55 | 1013.9 |
| 20260504033427 | 56 | 251 | 5.2 | 15.6 | 0.00 | 0.00 | 0.00 | 55 | 1013.9 |
| 20260504033326 | 56 | 288 | 5.2 | 15.6 | 0.00 | 0.00 | 0.00 | 55 | 1013.9 |
| 20260504033239 | 56 | 272 | 5.2 | 15.6 | 0.00 | 0.00 | 0.00 | 55 | 1013.9 |
| 20260504033149 | 56 | 294 | 10.4 | 15.6 | 0.00 | 0.00 | 0.00 | 55 | 1013.9 |
| 20260504033025 | 56 | 304 | 7.8 | 12.2 | 0.00 | 0.00 | 0.00 | 54 | 1013.9 |
| 20260504032925 | 56 | 292 | 8.7 | 12.2 | 0.00 | 0.00 | 0.00 | 54 | 1013.9 |
| 20260504032843 | 56 | 292 | 7.8 | 13.9 | 0.00 | 0.00 | 0.00 | 54 | 1014.4 |
| 20260504032741 | 56 | 289 | 8.7 | 13.9 | 0.00 | 0.00 | 0.00 | 55 | 1014.4 |
| 20260504032640 | 56 | 265 | 7.8 | 13.9 | 0.00 | 0.00 | 0.00 | 55 | 1014.4 |
| 20260504032538 | 56 | 277 | 6.1 | 13.9 | 0.00 | 0.00 | 0.00 | 54 | 1014.4 |
| 20260504032501 | 56 | 254 | 7.0 | 13.9 | 0.00 | 0.00 | 0.00 | 54 | 1014.4 |
| 20260504032337 | 56 | 322 | 7.0 | 13.9 | 0.00 | 0.00 | 0.00 | 54 | 1014.4 |
| 20260504032235 | 55 | 272 | 7.0 | 13.9 | 0.00 | 0.00 | 0.00 | 55 | 1014.4 |
| 20260504032133 | 55 | 281 | 7.0 | 13.9 | 0.00 | 0.00 | 0.00 | 54 | 1014.4 |
| 20260504032054 | 55 | 281 | 7.8 | 13.9 | 0.00 | 0.00 | 0.00 | 54 | 1014.4 |
| 20260504031933 | 55 | 302 | 6.1 | 13.9 | 0.00 | 0.00 | 0.00 | 54 | 1014.4 |
| 20260504031831 | 55 | 328 | 8.7 | 13.9 | 0.00 | 0.00 | 0.00 | 54 | 1014.4 |
| 20260504031743 | 55 | 288 | 4.3 | 13.9 | 0.00 | 0.00 | 0.00 | 54 | 1014.4 |
| 20260504031652 | 55 | 320 | 7.0 | 13.9 | 0.00 | 0.00 | 0.00 | 54 | 1014.4 |
| 20260504031530 | 55 | 298 | 7.0 | 13.9 | 0.00 | 0.00 | 0.00 | 54 | 1014.4 |
| 20260504031428 | 55 | 301 | 7.0 | 12.2 | 0.00 | 0.00 | 0.00 | 55 | 1014.4 |
| 20260504031326 | 55 | 261 | 5.2 | 12.2 | 0.00 | 0.00 | 0.00 | 54 | 1014.7 |
| 20260504031229 | 55 | 315 | 4.3 | 12.2 | 0.00 | 0.00 | 0.00 | 54 | 1014.7 |
| 20260504031128 | 55 | 280 | 5.2 | 12.2 | 0.00 | 0.00 | 0.00 | 55 | 1014.7 |
| 20260504031030 | 55 | 296 | 5.2 | 12.2 | 0.00 | 0.00 | 0.00 | 55 | 1014.7 |
| 20260504030929 | 55 | 299 | 8.7 | 12.2 | 0.00 | 0.00 | 0.00 | 55 | 1014.7 |
| 20260504030849 | 55 | 318 | 8.7 | 12.2 | 0.00 | 0.00 | 0.00 | 54 | 1014.7 |
| 20260504030727 | 55 | 306 | 5.2 | 12.2 | 0.00 | 0.00 | 0.00 | 54 | 1014.7 |
| 20260504030625 | 55 | 260 | 8.7 | 12.2 | 0.00 | 0.00 | 0.00 | 55 | 1014.7 |
| 20260504030523 | 55 | 316 | 5.2 | 12.2 | 0.00 | 0.00 | 0.00 | 55 | 1014.7 |
| 20260504030443 | 55 | 315 | 7.0 | 12.2 | 0.00 | 0.00 | 0.00 | 55 | 1014.7 |
| 20260504030325 | 55 | 257 | 7.0 | 12.2 | 0.00 | 0.00 | 0.00 | 55 | 1014.7 |
| 20260504030236 | 55 | 309 | 5.2 | 12.2 | 0.00 | 0.00 | 0.00 | 55 | 1014.7 |
| 20260504030147 | 55 | 313 | 8.7 | 12.2 | 0.00 | 0.00 | 0.00 | 55 | 1014.7 |
| 20260504030023 | 55 | 287 | 5.2 | 10.4 | 0.00 | 0.00 | 0.00 | 55 | 1014.7 |
| 20260504025925 | 55 | 226 | 6.1 | 10.4 | 0.00 | 0.00 | 0.00 | 54 | 1014.7 |
| 20260504025843 | 55 | 274 | 7.0 | 10.4 | 0.00 | 0.00 | 0.00 | 54 | 1014.7 |
| 20260504025741 | 55 | 318 | 7.0 | 10.4 | 0.00 | 0.00 | 0.00 | 55 | 1014.7 |
| 20260504025639 | 55 | 284 | 7.0 | 10.4 | 0.00 | 0.00 | 0.00 | 55 | 1014.7 |
| 20260504025601 | 55 | 268 | 5.2 | 10.4 | 0.00 | 0.00 | 0.00 | 55 | 1014.7 |
| 20260504025439 | 55 | 247 | 5.2 | 10.4 | 0.00 | 0.00 | 0.00 | 55 | 1014.7 |
| 20260504025337 | 55 | 315 | 5.2 | 7.8 | 0.00 | 0.00 | 0.00 | 56 | 1014.7 |
| 20260504025235 | 55 | 294 | 4.3 | 7.8 | 0.00 | 0.00 | 0.00 | 56 | 1014.7 |
| 20260504025134 | 55 | 305 | 5.2 | 7.8 | 0.00 | 0.00 | 0.00 | 56 | 1014.7 |
| 20260504025032 | 55 | 323 | 4.3 | 7.8 | 0.00 | 0.00 | 0.00 | 56 | 1014.7 |
| 20260504024930 | 55 | 260 | 6.1 | 7.8 | 0.00 | 0.00 | 0.00 | 56 | 1014.7 |
| 20260504024833 | 55 | 315 | 6.1 | 7.8 | 0.00 | 0.00 | 0.00 | 56 | 1014.7 |
| 20260504024752 | 55 | 287 | 5.2 | 7.8 | 0.00 | 0.00 | 0.00 | 56 | 1014.7 |
| 20260504024702 | 55 | 301 | 4.3 | 7.8 | 0.00 | 0.00 | 0.00 | 56 | 1014.7 |
| 20260504024540 | 55 | 243 | 5.2 | 7.8 | 0.00 | 0.00 | 0.00 | 56 | 1014.7 |
| 20260504024439 | 55 | 288 | 4.3 | 7.8 | 0.00 | 0.00 | 0.00 | 56 | 1014.7 |
| 20260504024338 | 55 | 315 | 5.2 | 7.8 | 0.00 | 0.00 | 0.00 | 56 | 1014.7 |
| 20260504024236 | 55 | 298 | 5.2 | 7.8 | 0.00 | 0.00 | 0.00 | 56 | 1014.7 |
| 20260504024139 | 55 | 301 | 5.2 | 7.8 | 0.00 | 0.00 | 0.00 | 56 | 1014.7 |
| 20260504024038 | 55 | 329 | 5.2 | 7.8 | 0.00 | 0.00 | 0.00 | 56 | 1014.7 |
| 20260504023938 | 55 | 268 | 3.5 | 7.0 | 0.00 | 0.00 | 0.00 | 56 | 1014.7 |
| 20260504023836 | 55 | 260 | 5.2 | 7.0 | 0.00 | 0.00 | 0.00 | 56 | 1014.7 |
| 20260504023735 | 55 | 280 | 5.2 | 7.0 | 0.00 | 0.00 | 0.00 | 56 | 1014.7 |
| 20260504023652 | 55 | 265 | 4.3 | 7.0 | 0.00 | 0.00 | 0.00 | 55 | 1014.7 |
| 20260504023530 | 55 | 326 | 4.3 | 7.0 | 0.00 | 0.00 | 0.00 | 56 | 1014.7 |
| 20260504023433 | 55 | 304 | 5.2 | 7.0 | 0.00 | 0.00 | 0.00 | 56 | 1014.7 |
| 20260504023331 | 55 | 312 | 5.2 | 7.0 | 0.00 | 0.00 | 0.00 | 56 | 1014.7 |
| 20260504023242 | 55 | 329 | 3.5 | 7.0 | 0.00 | 0.00 | 0.00 | 56 | 1014.7 |
| 20260504023152 | 55 | 332 | 5.2 | 7.0 | 0.00 | 0.00 | 0.00 | 56 | 1014.7 |
| 20260504023027 | 55 | 285 | 4.3 | 7.0 | 0.00 | 0.00 | 0.00 | 56 | 1014.7 |
| 20260504022926 | 55 | 306 | 3.5 | 7.0 | 0.00 | 0.00 | 0.00 | 56 | 1014.7 |
| 20260504022824 | 55 | 319 | 3.5 | 7.0 | 0.00 | 0.00 | 0.00 | 56 | 1014.6 |
| 20260504022730 | 55 | 294 | 4.3 | 7.0 | 0.00 | 0.00 | 0.00 | 56 | 1014.6 |
| 20260504022649 | 55 | 267 | 3.5 | 7.0 | 0.00 | 0.00 | 0.00 | 56 | 1014.6 |
| 20260504022546 | 55 | 330 | 3.5 | 7.0 | 0.00 | 0.00 | 0.00 | 56 | 1014.6 |
| 20260504022443 | 55 | 243 | 3.5 | 7.0 | 0.00 | 0.00 | 0.00 | 56 | 1014.6 |
| 20260504022341 | 55 | 332 | 5.2 | 7.0 | 0.00 | 0.00 | 0.00 | 56 | 1014.6 |
| 20260504022239 | 55 | 323 | 4.3 | 7.0 | 0.00 | 0.00 | 0.00 | 58 | 1014.6 |
| 20260504022137 | 55 | 325 | 4.3 | 7.0 | 0.00 | 0.00 | 0.00 | 59 | 1014.6 |
| 20260504022056 | 55 | 328 | 4.3 | 7.0 | 0.00 | 0.00 | 0.00 | 58 | 1014.6 |
| 20260504021932 | 55 | 288 | 4.3 | 7.0 | 0.00 | 0.00 | 0.00 | 58 | 1014.6 |
| 20260504021835 | 55 | 237 | 3.5 | 7.0 | 0.00 | 0.00 | 0.00 | 59 | 1014.6 |
| 20260504021734 | 55 | 263 | 5.2 | 7.0 | 0.00 | 0.00 | 0.00 | 59 | 1014.6 |
| 20260504021703 | 55 | 302 | 3.5 | 7.0 | 0.00 | 0.00 | 0.00 | 59 | 1014.6 |
| 20260504021542 | 55 | 332 | 2.6 | 6.1 | 0.00 | 0.00 | 0.00 | 59 | 1014.6 |
| 20260504021502 | 55 | 260 | 2.6 | 6.1 | 0.00 | 0.00 | 0.00 | 59 | 1014.6 |
| 20260504021339 | 55 | 251 | 3.5 | 6.1 | 0.00 | 0.00 | 0.00 | 59 | 1014.5 |
| 20260504021257 | 55 | 332 | 4.3 | 7.0 | 0.00 | 0.00 | 0.00 | 59 | 1014.5 |
| 20260504021134 | 55 | 330 | 3.5 | 7.0 | 0.00 | 0.00 | 0.00 | 59 | 1014.5 |
| 20260504021057 | 55 | 326 | 2.6 | 7.0 | 0.00 | 0.00 | 0.00 | 59 | 1014.5 |
| 20260504020954 | 55 | 330 | 4.3 | 7.0 | 0.00 | 0.00 | 0.00 | 59 | 1014.5 |
| 20260504020830 | 55 | 333 | 3.5 | 7.0 | 0.00 | 0.00 | 0.00 | 59 | 1014.5 |
| 20260504020729 | 55 | 261 | 4.3 | 7.0 | 0.00 | 0.00 | 0.00 | 59 | 1014.5 |
| 20260504020629 | 55 | 322 | 3.5 | 7.0 | 0.00 | 0.00 | 0.00 | 60 | 1014.5 |
| 20260504020547 | 55 | 330 | 4.3 | 7.0 | 0.00 | 0.00 | 0.00 | 59 | 1014.5 |
| 20260504020504 | 55 | 263 | 4.3 | 7.0 | 0.00 | 0.00 | 0.00 | 59 | 1014.5 |
| 20260504020342 | 55 | 254 | 4.3 | 6.1 | 0.00 | 0.00 | 0.00 | 59 | 1014.5 |
| 20260504020225 | 55 | 332 | 2.6 | 6.1 | 0.00 | 0.00 | 0.00 | 59 | 1014.5 |
| 20260504020155 | 55 | 258 | 1.7 | 5.2 | 0.00 | 0.00 | 0.00 | 59 | 1014.5 |
| 20260504020032 | 55 | 329 | 1.7 | 5.2 | 0.00 | 0.00 | 0.00 | 58 | 1014.5 |
| 20260504015949 | 55 | 306 | 2.6 | 5.2 | 0.00 | 0.00 | 0.00 | 57 | 1014.5 |
| 20260504015828 | 55 | 330 | 3.5 | 5.2 | 0.00 | 0.00 | 0.00 | 56 | 1014.3 |
| 20260504015725 | 55 | 319 | 2.6 | 5.2 | 0.00 | 0.00 | 0.00 | 56 | 1014.3 |
| 20260504015624 | 55 | 330 | 2.6 | 5.2 | 0.00 | 0.00 | 0.00 | 56 | 1014.3 |
| 20260504015526 | 55 | 329 | 2.6 | 5.2 | 0.00 | 0.00 | 0.00 | 56 | 1014.3 |
| 20260504015445 | 55 | 270 | 2.6 | 5.2 | 0.00 | 0.00 | 0.00 | 55 | 1014.3 |
| 20260504015404 | 55 | 332 | 1.7 | 5.2 | 0.00 | 0.00 | 0.00 | 55 | 1014.3 |
| 20260504015301 | 55 | 315 | 0.9 | 5.2 | 0.00 | 0.00 | 0.00 | 56 | 1014.3 |
| 20260504015138 | 55 | 332 | 1.7 | 6.1 | 0.00 | 0.00 | 0.00 | 57 | 1014.3 |
| 20260504015036 | 55 | 332 | 1.7 | 6.1 | 0.00 | 0.00 | 0.00 | 57 | 1014.3 |
| 20260504014954 | 55 | 330 | 1.7 | 6.1 | 0.00 | 0.00 | 0.00 | 57 | 1014.3 |
| 20260504014832 | 55 | 308 | 3.5 | 6.1 | 0.00 | 0.00 | 0.00 | 57 | 1014.3 |
| 20260504014730 | 55 | 265 | 2.6 | 6.1 | 0.00 | 0.00 | 0.00 | 58 | 1014.3 |
| 20260504014704 | 55 | 333 | 3.5 | 6.1 | 0.00 | 0.00 | 0.00 | 57 | 1014.3 |
| 20260504014542 | 55 | 309 | 3.5 | 6.1 | 0.00 | 0.00 | 0.00 | 59 | 1014.3 |
| 20260504014500 | 55 | 256 | 3.5 | 6.1 | 0.00 | 0.00 | 0.00 | 59 | 1014.3 |
| 20260504014358 | 55 | 329 | 4.3 | 6.1 | 0.00 | 0.00 | 0.00 | 59 | 1014.1 |
| 20260504014236 | 55 | 284 | 2.6 | 6.1 | 0.00 | 0.00 | 0.00 | 59 | 1014.1 |
| 20260504014133 | 55 | 244 | 1.7 | 6.1 | 0.00 | 0.00 | 0.00 | 59 | 1014.1 |
| 20260504014052 | 55 | 299 | 3.5 | 6.1 | 0.00 | 0.00 | 0.00 | 58 | 1014.1 |
| 20260504013929 | 55 | 270 | 3.5 | 6.1 | 0.00 | 0.00 | 0.00 | 58 | 1014.1 |
| 20260504013830 | 55 | 320 | 4.3 | 6.1 | 0.00 | 0.00 | 0.00 | 57 | 1014.1 |
| 20260504013730 | 55 | 294 | 3.5 | 6.1 | 0.00 | 0.00 | 0.00 | 57 | 1014.1 |
| 20260504013628 | 55 | 330 | 2.6 | 6.1 | 0.00 | 0.00 | 0.00 | 57 | 1014.1 |
| 20260504013525 | 55 | 261 | 2.6 | 6.1 | 0.00 | 0.00 | 0.00 | 56 | 1014.1 |
| 20260504013424 | 55 | 296 | 3.5 | 6.1 | 0.00 | 0.00 | 0.00 | 56 | 1014.1 |
| 20260504013343 | 55 | 332 | 3.5 | 6.1 | 0.00 | 0.00 | 0.00 | 56 | 1014.1 |
| 20260504013231 | 55 | 330 | 1.7 | 6.1 | 0.00 | 0.00 | 0.00 | 56 | 1014.1 |
| 20260504013146 | 55 | 332 | 1.7 | 6.1 | 0.00 | 0.00 | 0.00 | 56 | 1014.1 |
| 20260504013025 | 55 | 326 | 4.3 | 6.1 | 0.00 | 0.00 | 0.00 | 56 | 1014.1 |
| 20260504012924 | 55 | 333 | 2.6 | 5.2 | 0.00 | 0.00 | 0.00 | 56 | 1014.1 |
| 20260504012824 | 55 | 326 | 2.6 | 5.2 | 0.00 | 0.00 | 0.00 | 56 | 1013.9 |
| 20260504012726 | 56 | 329 | 0.9 | 5.2 | 0.00 | 0.00 | 0.00 | 57 | 1013.9 |
| 20260504012626 | 56 | 280 | 2.6 | 5.2 | 0.00 | 0.00 | 0.00 | 57 | 1013.9 |
| 20260504012544 | 56 | 316 | 3.5 | 5.2 | 0.00 | 0.00 | 0.00 | 58 | 1013.9 |
| 20260504012426 | 56 | 333 | 3.5 | 5.2 | 0.00 | 0.00 | 0.00 | 58 | 1013.9 |
| 20260504012344 | 56 | 337 | 3.5 | 5.2 | 0.00 | 0.00 | 0.00 | 57 | 1013.9 |
| 20260504012305 | 56 | 333 | 3.5 | 6.1 | 0.00 | 0.00 | 0.00 | 57 | 1013.9 |
| 20260504012142 | 56 | 337 | 3.5 | 6.1 | 0.00 | 0.00 | 0.00 | 57 | 1013.9 |
| 20260504012100 | 56 | 322 | 3.5 | 6.1 | 0.00 | 0.00 | 0.00 | 56 | 1013.9 |
| 20260504011937 | 56 | 315 | 2.6 | 6.1 | 0.00 | 0.00 | 0.00 | 56 | 1013.9 |
| 20260504011856 | 56 | 333 | 3.5 | 6.1 | 0.00 | 0.00 | 0.00 | 56 | 1013.9 |
| 20260504011732 | 56 | 330 | 4.3 | 7.0 | 0.00 | 0.00 | 0.00 | 56 | 1013.9 |
| 20260504011703 | 56 | 311 | 4.3 | 7.0 | 0.00 | 0.00 | 0.00 | 56 | 1013.9 |
| 20260504011604 | 56 | 333 | 3.5 | 7.0 | 0.00 | 0.00 | 0.00 | 56 | 1013.9 |
| 20260504011442 | 56 | 332 | 3.5 | 7.0 | 0.00 | 0.00 | 0.00 | 56 | 1013.9 |
| 20260504011342 | 56 | 301 | 3.5 | 7.0 | 0.00 | 0.00 | 0.00 | 56 | 1013.2 |
| 20260504011241 | 56 | 320 | 2.6 | 7.0 | 0.00 | 0.00 | 0.00 | 55 | 1013.2 |
| 20260504011139 | 56 | 330 | 3.5 | 7.0 | 0.00 | 0.00 | 0.00 | 56 | 1013.2 |
| 20260504011038 | 56 | 329 | 2.6 | 7.0 | 0.00 | 0.00 | 0.00 | 56 | 1013.2 |
| 20260504010936 | 56 | 320 | 3.5 | 7.0 | 0.00 | 0.00 | 0.00 | 56 | 1013.2 |
| 20260504010838 | 57 | 333 | 3.5 | 7.0 | 0.00 | 0.00 | 0.00 | 54 | 1013.2 |
| 20260504010736 | 57 | 329 | 3.5 | 5.2 | 0.00 | 0.00 | 0.00 | 54 | 1013.2 |
| 20260504010634 | 57 | 332 | 2.6 | 5.2 | 0.00 | 0.00 | 0.00 | 54 | 1013.2 |
| 20260504010532 | 57 | 326 | 2.6 | 5.2 | 0.00 | 0.00 | 0.00 | 53 | 1013.2 |
| 20260504010430 | 57 | 333 | 2.6 | 5.2 | 0.00 | 0.00 | 0.00 | 53 | 1013.2 |
| 20260504010330 | 57 | 329 | 1.7 | 4.3 | 0.00 | 0.00 | 0.00 | 53 | 1013.2 |
| 20260504010228 | 57 | 325 | 0.9 | 4.3 | 0.00 | 0.00 | 0.00 | 54 | 1013.2 |
| 20260504010202 | 57 | 332 | 1.7 | 4.3 | 0.00 | 0.00 | 0.00 | 54 | 1013.2 |
| 20260504010039 | 57 | 332 | 1.7 | 4.3 | 0.00 | 0.00 | 0.00 | 53 | 1013.2 |
| 20260504005937 | 57 | 333 | 2.6 | 4.3 | 0.00 | 0.00 | 0.00 | 53 | 1013.2 |
| 20260504005835 | 57 | 326 | 1.7 | 3.5 | 0.00 | 0.00 | 0.00 | 51 | 1014.0 |
| 20260504005733 | 57 | 304 | 2.6 | 3.5 | 0.00 | 0.00 | 0.00 | 50 | 1014.0 |
| 20260504005630 | 57 | 333 | 1.7 | 3.5 | 0.00 | 0.00 | 0.00 | 51 | 1014.0 |
| 20260504005529 | 57 | 330 | 1.7 | 2.6 | 0.00 | 0.00 | 0.00 | 50 | 1014.0 |
| 20260504005431 | 58 | 333 | 1.7 | 2.6 | 0.00 | 0.00 | 0.00 | 50 | 1014.0 |
| 20260504005351 | 58 | 330 | 1.7 | 2.6 | 0.00 | 0.00 | 0.00 | 50 | 1014.0 |
| 20260504005250 | 58 | 333 | 2.6 | 2.6 | 0.00 | 0.00 | 0.00 | 50 | 1014.0 |
| 20260504005127 | 58 | 335 | 0.9 | 2.6 | 0.00 | 0.00 | 0.00 | 50 | 1014.0 |
| 20260504005025 | 58 | 318 | 0.0 | 2.6 | 0.00 | 0.00 | 0.00 | 50 | 1014.0 |
| 20260504004943 | 58 | 332 | 0.0 | 2.6 | 0.00 | 0.00 | 0.00 | 50 | 1014.0 |
| 20260504004843 | 58 | 325 | 0.9 | 2.6 | 0.00 | 0.00 | 0.00 | 51 | 1014.0 |
| 20260504004725 | 58 | 329 | 1.7 | 4.3 | 0.00 | 0.00 | 0.00 | 51 | 1014.0 |
| 20260504004655 | 58 | 325 | 0.9 | 5.2 | 0.00 | 0.00 | 0.00 | 51 | 1014.0 |
| 20260504004532 | 58 | 330 | 0.9 | 5.2 | 0.00 | 0.00 | 0.00 | 50 | 1014.0 |
| 20260504004430 | 58 | 328 | 0.0 | 5.2 | 0.00 | 0.00 | 0.00 | 50 | 1014.0 |
| 20260504004330 | 58 | 325 | 0.0 | 5.2 | 0.00 | 0.00 | 0.00 | 49 | 1013.9 |
| 20260504004228 | 58 | 323 | 0.9 | 5.2 | 0.00 | 0.00 | 0.00 | 49 | 1013.9 |
| 20260504004126 | 58 | 332 | 0.0 | 5.2 | 0.00 | 0.00 | 0.00 | 49 | 1013.9 |
| 20260504004029 | 58 | 309 | 0.0 | 5.2 | 0.00 | 0.00 | 0.00 | 48 | 1013.9 |
| 20260504003927 | 58 | 330 | 0.9 | 5.2 | 0.00 | 0.00 | 0.00 | 48 | 1013.9 |
| 20260504003826 | 59 | 323 | 0.9 | 5.2 | 0.00 | 0.00 | 0.00 | 48 | 1013.9 |
| 20260504003727 | 59 | 318 | 0.9 | 2.6 | 0.00 | 0.00 | 0.00 | 48 | 1013.9 |
| 20260504003625 | 59 | 319 | 0.9 | 2.6 | 0.00 | 0.00 | 0.00 | 47 | 1013.9 |
| 20260504003544 | 59 | 318 | 0.9 | 2.6 | 0.00 | 0.00 | 0.00 | 47 | 1013.9 |
| 20260504003441 | 59 | 323 | 0.9 | 2.6 | 0.00 | 0.00 | 0.00 | 47 | 1013.9 |
| 20260504003345 | 59 | 330 | 0.9 | 2.6 | 0.00 | 0.00 | 0.00 | 47 | 1013.9 |
| 20260504003243 | 59 | 320 | 0.9 | 2.6 | 0.00 | 0.00 | 0.00 | 46 | 1013.9 |
| 20260504003214 | 59 | 313 | 0.9 | 2.6 | 0.00 | 0.00 | 0.00 | 46 | 1013.9 |
| 20260504003028 | 59 | 332 | 0.9 | 2.6 | 0.00 | 0.00 | 0.00 | 47 | 1013.9 |
| 20260504002927 | 59 | 329 | 0.0 | 2.6 | 0.00 | 0.00 | 0.00 | 46 | 1013.9 |
| 20260504002825 | 59 | 312 | 0.0 | 5.2 | 0.00 | 0.00 | 0.00 | 47 | 1013.9 |
| 20260504002743 | 59 | 316 | 0.9 | 5.2 | 0.00 | 0.00 | 0.00 | 46 | 1013.9 |
| 20260504002642 | 59 | 330 | 1.7 | 7.0 | 0.00 | 0.00 | 0.00 | 46 | 1013.9 |
| 20260504002601 | 59 | 332 | 1.7 | 7.0 | 0.00 | 0.00 | 0.00 | 47 | 1013.9 |
| 20260504002437 | 59 | 332 | 0.9 | 7.0 | 0.00 | 0.00 | 0.00 | 47 | 1013.9 |
| 20260504002339 | 60 | 329 | 0.9 | 7.0 | 0.00 | 0.00 | 0.00 | 47 | 1013.9 |
| 20260504002237 | 60 | 330 | 0.9 | 7.0 | 0.00 | 0.00 | 0.00 | 47 | 1013.9 |
| 20260504002136 | 60 | 332 | 1.7 | 7.0 | 0.00 | 0.00 | 0.00 | 46 | 1013.9 |
| 20260504002054 | 60 | 329 | 1.7 | 7.0 | 0.00 | 0.00 | 0.00 | 46 | 1013.9 |
| 20260504001932 | 60 | 328 | 0.0 | 7.0 | 0.00 | 0.00 | 0.00 | 46 | 1013.9 |
| 20260504001829 | 60 | 325 | 2.6 | 7.0 | 0.00 | 0.00 | 0.00 | 46 | 1013.9 |
| 20260504001737 | 60 | 322 | 3.5 | 7.0 | 0.00 | 0.00 | 0.00 | 46 | 1013.9 |
| 20260504001647 | 60 | 318 | 2.6 | 9.6 | 0.00 | 0.00 | 0.00 | 46 | 1013.9 |
| 20260504001548 | 60 | 330 | 2.6 | 9.6 | 0.00 | 0.00 | 0.00 | 46 | 1013.9 |
| 20260504001425 | 60 | 322 | 2.6 | 9.6 | 0.00 | 0.00 | 0.00 | 45 | 1013.9 |
| 20260504001344 | 60 | 333 | 4.3 | 9.6 | 0.00 | 0.00 | 0.00 | 45 | 1014.1 |
| 20260504001303 | 60 | 319 | 3.5 | 9.6 | 0.00 | 0.00 | 0.00 | 45 | 1014.1 |
| 20260504001139 | 60 | 316 | 2.6 | 9.6 | 0.00 | 0.00 | 0.00 | 46 | 1014.1 |
| 20260504001038 | 60 | 328 | 1.7 | 9.6 | 0.00 | 0.00 | 0.00 | 46 | 1014.1 |
| 20260504000936 | 60 | 326 | 2.6 | 9.6 | 0.00 | 0.00 | 0.00 | 46 | 1014.1 |
| 20260504000834 | 60 | 320 | 3.5 | 9.6 | 0.00 | 0.00 | 0.00 | 46 | 1014.1 |
| 20260504000736 | 60 | 312 | 3.5 | 7.8 | 0.00 | 0.00 | 0.00 | 46 | 1014.1 |
| 20260504000635 | 60 | 318 | 3.5 | 6.1 | 0.00 | 0.00 | 0.00 | 45 | 1014.1 |
| 20260504000533 | 60 | 318 | 3.5 | 5.2 | 0.00 | 0.00 | 0.00 | 45 | 1014.1 |
| 20260504000431 | 60 | 312 | 1.7 | 5.2 | 0.00 | 0.00 | 0.00 | 45 | 1014.1 |
| 20260504000329 | 60 | 326 | 2.6 | 5.2 | 0.00 | 0.00 | 0.00 | 44 | 1014.1 |
| 20260504000241 | 60 | 320 | 1.7 | 5.2 | 0.00 | 0.00 | 0.00 | 44 | 1014.1 |
| 20260504000151 | 60 | 325 | 1.7 | 8.7 | 0.00 | 0.00 | 0.00 | 44 | 1014.1 |
| 20260504000031 | 60 | 323 | 0.9 | 8.7 | 0.00 | 0.00 | 0.00 | 44 | 1014.1 |
| 20260503235949 | 60 | 325 | 0.9 | 8.7 | 0.00 | 0.00 | 0.00 | 44 | 1014.1 |
| 20260503235827 | 60 | 332 | 3.5 | 8.7 | 0.00 | 0.00 | 0.00 | 44 | 1014.2 |
| 20260503235726 | 60 | 326 | 2.6 | 8.7 | 0.00 | 0.00 | 0.00 | 44 | 1014.2 |
| 20260503235645 | 60 | 332 | 1.7 | 10.4 | 0.00 | 0.00 | 0.00 | 44 | 1014.2 |
| 20260503235604 | 60 | 315 | 1.7 | 10.4 | 0.00 | 0.00 | 0.00 | 43 | 1014.2 |
| 20260503235441 | 60 | 325 | 2.6 | 10.4 | 0.00 | 0.00 | 0.00 | 42 | 1014.2 |
| 20260503235326 | 60 | 313 | 4.3 | 10.4 | 0.00 | 0.00 | 0.00 | 41 | 1014.2 |
| 20260503235223 | 60 | 332 | 2.6 | 10.4 | 0.00 | 0.00 | 0.00 | 41 | 1014.2 |
| 20260503235142 | 61 | 318 | 2.6 | 10.4 | 0.00 | 0.00 | 0.00 | 41 | 1014.2 |
| 20260503235040 | 61 | 323 | 2.6 | 10.4 | 0.00 | 0.00 | 0.00 | 42 | 1014.2 |
| 20260503234939 | 61 | 322 | 0.9 | 10.4 | 0.00 | 0.00 | 0.00 | 42 | 1014.2 |
| 20260503234836 | 61 | 319 | 4.3 | 10.4 | 0.00 | 0.00 | 0.00 | 42 | 1014.2 |
| 20260503234734 | 61 | 322 | 7.0 | 8.7 | 0.00 | 0.00 | 0.00 | 44 | 1014.2 |
| 20260503234704 | 61 | 322 | 6.1 | 8.7 | 0.00 | 0.00 | 0.00 | 44 | 1014.2 |
| 20260503234602 | 61 | 325 | 2.6 | 10.4 | 0.00 | 0.00 | 0.00 | 45 | 1014.2 |
| 20260503234441 | 61 | 322 | 1.7 | 10.4 | 0.00 | 0.00 | 0.00 | 45 | 1014.2 |
| 20260503234339 | 61 | 289 | 1.7 | 10.4 | 0.00 | 0.00 | 0.00 | 45 | 1014.2 |
| 20260503234238 | 61 | 322 | 0.9 | 10.4 | 0.00 | 0.00 | 0.00 | 45 | 1014.2 |
| 20260503234136 | 61 | 301 | 2.6 | 10.4 | 0.00 | 0.00 | 0.00 | 46 | 1014.2 |
| 20260503234034 | 61 | 320 | 3.5 | 10.4 | 0.00 | 0.00 | 0.00 | 45 | 1014.2 |
| 20260503233932 | 61 | 311 | 2.6 | 10.4 | 0.00 | 0.00 | 0.00 | 46 | 1014.2 |
| 20260503233831 | 61 | 316 | 2.6 | 10.4 | 0.00 | 0.00 | 0.00 | 45 | 1014.2 |
| 20260503233753 | 61 | 319 | 5.2 | 10.4 | 0.00 | 0.00 | 0.00 | 44 | 1014.2 |
| 20260503233631 | 61 | 326 | 5.2 | 10.4 | 0.00 | 0.00 | 0.00 | 45 | 1014.2 |
| 20260503233529 | 61 | 330 | 3.5 | 10.4 | 0.00 | 0.00 | 0.00 | 46 | 1014.2 |
| 20260503233427 | 61 | 333 | 4.3 | 10.4 | 0.00 | 0.00 | 0.00 | 45 | 1014.2 |
| 20260503233326 | 61 | 328 | 1.7 | 7.8 | 0.00 | 0.00 | 0.00 | 46 | 1014.2 |
| 20260503233225 | 61 | 313 | 2.6 | 7.8 | 0.00 | 0.00 | 0.00 | 46 | 1014.2 |
| 20260503233157 | 61 | 323 | 3.5 | 7.8 | 0.00 | 0.00 | 0.00 | 46 | 1014.2 |
| 20260503233038 | 61 | 320 | 6.1 | 8.7 | 0.00 | 0.00 | 0.00 | 46 | 1014.2 |
| 20260503232936 | 61 | 329 | 4.3 | 8.7 | 0.00 | 0.00 | 0.00 | 46 | 1014.2 |
| 20260503232835 | 61 | 328 | 3.5 | 8.7 | 0.00 | 0.00 | 0.00 | 45 | 1014.3 |
| 20260503232732 | 61 | 332 | 4.3 | 8.7 | 0.00 | 0.00 | 0.00 | 45 | 1014.3 |
| 20260503232630 | 61 | 320 | 4.3 | 8.7 | 0.00 | 0.00 | 0.00 | 45 | 1014.3 |
| 20260503232528 | 61 | 326 | 0.9 | 8.7 | 0.00 | 0.00 | 0.00 | 44 | 1014.3 |
| 20260503232427 | 61 | 309 | 0.9 | 8.7 | 0.00 | 0.00 | 0.00 | 44 | 1014.3 |
| 20260503232329 | 61 | 277 | 1.7 | 8.7 | 0.00 | 0.00 | 0.00 | 44 | 1014.3 |
| 20260503232227 | 61 | 312 | 4.3 | 8.7 | 0.00 | 0.00 | 0.00 | 44 | 1014.3 |
| 20260503232126 | 61 | 299 | 2.6 | 7.8 | 0.00 | 0.00 | 0.00 | 43 | 1014.3 |
| 20260503232025 | 61 | 315 | 3.5 | 10.4 | 0.00 | 0.00 | 0.00 | 44 | 1014.3 |
| 20260503231925 | 61 | 320 | 4.3 | 10.4 | 0.00 | 0.00 | 0.00 | 44 | 1014.3 |
| 20260503231842 | 61 | 306 | 4.3 | 10.4 | 0.00 | 0.00 | 0.00 | 44 | 1014.3 |
| 20260503231736 | 61 | 315 | 4.3 | 10.4 | 0.00 | 0.00 | 0.00 | 44 | 1014.3 |
| 20260503231645 | 61 | 316 | 1.7 | 10.4 | 0.00 | 0.00 | 0.00 | 43 | 1014.3 |
| 20260503231524 | 61 | 308 | 4.3 | 10.4 | 0.00 | 0.00 | 0.00 | 43 | 1014.3 |
| 20260503231443 | 61 | 304 | 2.6 | 10.4 | 0.00 | 0.00 | 0.00 | 43 | 1014.3 |
| 20260503231340 | 61 | 296 | 0.9 | 10.4 | 0.00 | 0.00 | 0.00 | 43 | 1014.3 |
| 20260503231238 | 61 | 332 | 5.2 | 10.4 | 0.00 | 0.00 | 0.00 | 42 | 1014.3 |
| 20260503231137 | 61 | 322 | 3.5 | 8.7 | 0.00 | 0.00 | 0.00 | 43 | 1014.3 |
| 20260503231057 | 61 | 306 | 5.2 | 8.7 | 0.00 | 0.00 | 0.00 | 42 | 1014.3 |
| 20260503230955 | 61 | 298 | 4.3 | 8.7 | 0.00 | 0.00 | 0.00 | 41 | 1014.3 |
| 20260503230836 | 61 | 329 | 4.3 | 8.7 | 0.00 | 0.00 | 0.00 | 43 | 1014.3 |
| 20260503230754 | 61 | 319 | 6.1 | 8.7 | 0.00 | 0.00 | 0.00 | 42 | 1014.3 |
| 20260503230631 | 61 | 322 | 4.3 | 8.7 | 0.00 | 0.00 | 0.00 | 42 | 1014.3 |
| 20260503230531 | 61 | 323 | 4.3 | 8.7 | 0.00 | 0.00 | 0.00 | 42 | 1014.3 |
| 20260503230430 | 62 | 315 | 2.6 | 8.7 | 0.00 | 0.00 | 0.00 | 42 | 1014.3 |
| 20260503230349 | 62 | 318 | 4.3 | 8.7 | 0.00 | 0.00 | 0.00 | 41 | 1014.3 |
| 20260503230225 | 62 | 319 | 1.7 | 8.7 | 0.00 | 0.00 | 0.00 | 42 | 1014.3 |
| 20260503230158 | 62 | 322 | 1.7 | 11.3 | 0.00 | 0.00 | 0.00 | 42 | 1014.3 |
| 20260503230041 | 62 | 326 | 2.6 | 11.3 | 0.00 | 0.00 | 0.00 | 42 | 1014.3 |
| 20260503225939 | 62 | 304 | 0.9 | 11.3 | 0.00 | 0.00 | 0.00 | 43 | 1014.3 |
| 20260503225837 | 62 | 316 | 3.5 | 11.3 | 0.00 | 0.00 | 0.00 | 43 | 1014.3 |
| 20260503225736 | 62 | 285 | 3.5 | 11.3 | 0.00 | 0.00 | 0.00 | 43 | 1014.3 |
| 20260503225634 | 62 | 277 | 2.6 | 11.3 | 0.00 | 0.00 | 0.00 | 42 | 1014.3 |
| 20260503225533 | 62 | 295 | 4.3 | 11.3 | 0.00 | 0.00 | 0.00 | 42 | 1014.3 |
| 20260503225435 | 62 | 289 | 5.2 | 11.3 | 0.00 | 0.00 | 0.00 | 43 | 1014.3 |
| 20260503225333 | 62 | 315 | 7.8 | 11.3 | 0.00 | 0.00 | 0.00 | 45 | 1014.3 |
| 20260503225233 | 62 | 322 | 6.1 | 10.4 | 0.00 | 0.00 | 0.00 | 44 | 1014.3 |
| 20260503225131 | 62 | 306 | 6.1 | 11.3 | 0.00 | 0.00 | 0.00 | 44 | 1014.3 |
| 20260503225050 | 62 | 316 | 6.1 | 11.3 | 0.00 | 0.00 | 0.00 | 42 | 1014.3 |
| 20260503224927 | 62 | 318 | 0.9 | 11.3 | 0.00 | 0.00 | 0.00 | 41 | 1014.3 |
| 20260503224846 | 62 | 315 | 1.7 | 11.3 | 0.00 | 0.00 | 0.00 | 41 | 1014.3 |
| 20260503224735 | 62 | 319 | 3.5 | 11.3 | 0.00 | 0.00 | 0.00 | 41 | 1014.3 |
| 20260503224648 | 62 | 319 | 5.2 | 11.3 | 0.00 | 0.00 | 0.00 | 42 | 1014.3 |
| 20260503224545 | 62 | 320 | 2.6 | 11.3 | 0.00 | 0.00 | 0.00 | 41 | 1014.3 |
| 20260503224504 | 62 | 315 | 4.3 | 11.3 | 0.00 | 0.00 | 0.00 | 40 | 1014.3 |
| 20260503224342 | 62 | 326 | 7.0 | 11.3 | 0.00 | 0.00 | 0.00 | 40 | 1014.4 |
| 20260503224242 | 62 | 316 | 6.1 | 11.3 | 0.00 | 0.00 | 0.00 | 40 | 1014.4 |
| 20260503224139 | 62 | 320 | 5.2 | 11.3 | 0.00 | 0.00 | 0.00 | 40 | 1014.4 |
| 20260503224058 | 62 | 322 | 4.3 | 11.3 | 0.00 | 0.00 | 0.00 | 40 | 1014.4 |
| 20260503223935 | 62 | 323 | 3.5 | 11.3 | 0.00 | 0.00 | 0.00 | 39 | 1014.4 |
| 20260503223840 | 62 | 315 | 5.2 | 11.3 | 0.00 | 0.00 | 0.00 | 39 | 1014.4 |
| 20260503223758 | 62 | 319 | 4.3 | 11.3 | 0.00 | 0.00 | 0.00 | 42 | 1014.4 |
| 20260503223636 | 62 | 301 | 4.3 | 11.3 | 0.00 | 0.00 | 0.00 | 42 | 1014.4 |
| 20260503223554 | 62 | 333 | 6.1 | 11.3 | 0.00 | 0.00 | 0.00 | 42 | 1014.4 |
| 20260503223431 | 62 | 316 | 4.3 | 10.4 | 0.00 | 0.00 | 0.00 | 42 | 1014.4 |
| 20260503223328 | 62 | 326 | 4.3 | 10.4 | 0.00 | 0.00 | 0.00 | 41 | 1014.4 |
| 20260503223238 | 62 | 305 | 3.5 | 10.4 | 0.00 | 0.00 | 0.00 | 41 | 1014.4 |
| 20260503223149 | 62 | 287 | 3.5 | 10.4 | 0.00 | 0.00 | 0.00 | 41 | 1014.4 |
| 20260503223031 | 62 | 322 | 2.6 | 10.4 | 0.00 | 0.00 | 0.00 | 40 | 1014.4 |
| 20260503222929 | 62 | 323 | 2.6 | 10.4 | 0.00 | 0.00 | 0.00 | 42 | 1014.4 |
| 20260503222827 | 62 | 305 | 4.3 | 10.4 | 0.00 | 0.00 | 0.00 | 42 | 1014.5 |
| 20260503222725 | 62 | 328 | 2.6 | 10.4 | 0.00 | 0.00 | 0.00 | 41 | 1014.5 |
| 20260503222624 | 62 | 296 | 4.3 | 10.4 | 0.00 | 0.00 | 0.00 | 41 | 1014.5 |
| 20260503222542 | 62 | 315 | 0.9 | 8.7 | 0.00 | 0.00 | 0.00 | 41 | 1014.5 |
| 20260503222439 | 62 | 325 | 2.6 | 8.7 | 0.00 | 0.00 | 0.00 | 41 | 1014.5 |
| 20260503222341 | 62 | 322 | 3.5 | 8.7 | 0.00 | 0.00 | 0.00 | 41 | 1014.5 |
| 20260503222240 | 62 | 287 | 3.5 | 8.7 | 0.00 | 0.00 | 0.00 | 41 | 1014.5 |
| 20260503222137 | 62 | 284 | 0.0 | 8.7 | 0.00 | 0.00 | 0.00 | 40 | 1014.5 |
| 20260503222057 | 62 | 323 | 1.7 | 8.7 | 0.00 | 0.00 | 0.00 | 42 | 1014.5 |
| 20260503221934 | 62 | 326 | 4.3 | 8.7 | 0.00 | 0.00 | 0.00 | 42 | 1014.5 |
| 20260503221852 | 62 | 326 | 5.2 | 8.7 | 0.00 | 0.00 | 0.00 | 43 | 1014.5 |
| 20260503221733 | 62 | 288 | 6.1 | 8.7 | 0.00 | 0.00 | 0.00 | 41 | 1014.5 |
| 20260503221704 | 62 | 329 | 5.2 | 8.7 | 0.00 | 0.00 | 0.00 | 42 | 1014.5 |
| 20260503221546 | 62 | 309 | 2.6 | 8.7 | 0.00 | 0.00 | 0.00 | 41 | 1014.5 |
| 20260503221444 | 62 | 304 | 0.9 | 9.6 | 0.00 | 0.00 | 0.00 | 41 | 1014.5 |
| 20260503221343 | 62 | 328 | 0.9 | 9.6 | 0.00 | 0.00 | 0.00 | 41 | 1014.7 |
| 20260503221241 | 62 | 328 | 2.6 | 9.6 | 0.00 | 0.00 | 0.00 | 41 | 1014.7 |
| 20260503221140 | 62 | 318 | 4.3 | 9.6 | 0.00 | 0.00 | 0.00 | 41 | 1014.7 |
| 20260503221038 | 62 | 322 | 2.6 | 9.6 | 0.00 | 0.00 | 0.00 | 42 | 1014.7 |
| 20260503220936 | 62 | 323 | 2.6 | 9.6 | 0.00 | 0.00 | 0.00 | 42 | 1014.7 |
| 20260503220839 | 62 | 316 | 5.2 | 9.6 | 0.00 | 0.00 | 0.00 | 42 | 1014.7 |
| 20260503220758 | 62 | 319 | 4.3 | 9.6 | 0.00 | 0.00 | 0.00 | 41 | 1014.7 |
| 20260503220635 | 62 | 330 | 3.5 | 10.4 | 0.00 | 0.00 | 0.00 | 39 | 1014.7 |
| 20260503220534 | 62 | 316 | 3.5 | 11.3 | 0.00 | 0.00 | 0.00 | 40 | 1014.7 |
| 20260503220452 | 62 | 318 | 4.3 | 12.2 | 0.00 | 0.00 | 0.00 | 41 | 1014.7 |
| 20260503220351 | 62 | 332 | 5.2 | 12.2 | 0.00 | 0.00 | 0.00 | 41 | 1014.7 |
| 20260503220240 | 62 | 301 | 5.2 | 12.2 | 0.00 | 0.00 | 0.00 | 41 | 1014.7 |
| 20260503220152 | 62 | 330 | 4.3 | 12.2 | 0.00 | 0.00 | 0.00 | 41 | 1014.7 |
| 20260503220028 | 62 | 325 | 2.6 | 12.2 | 0.00 | 0.00 | 0.00 | 39 | 1014.7 |
| 20260503215931 | 62 | 318 | 5.2 | 12.2 | 0.00 | 0.00 | 0.00 | 39 | 1014.7 |
| 20260503215829 | 62 | 319 | 5.2 | 12.2 | 0.00 | 0.00 | 0.00 | 39 | 1014.8 |
| 20260503215728 | 62 | 312 | 7.0 | 12.2 | 0.00 | 0.00 | 0.00 | 40 | 1014.8 |
| 20260503215647 | 62 | 311 | 7.0 | 12.2 | 0.00 | 0.00 | 0.00 | 40 | 1014.8 |
| 20260503215544 | 62 | 329 | 6.1 | 12.2 | 0.00 | 0.00 | 0.00 | 42 | 1014.8 |
| 20260503215443 | 62 | 289 | 4.3 | 12.2 | 0.00 | 0.00 | 0.00 | 44 | 1014.8 |
| 20260503215342 | 62 | 322 | 5.2 | 12.2 | 0.00 | 0.00 | 0.00 | 43 | 1014.8 |
| 20260503215243 | 62 | 325 | 3.5 | 12.2 | 0.00 | 0.00 | 0.00 | 42 | 1014.8 |
| 20260503215142 | 62 | 319 | 0.9 | 12.2 | 0.00 | 0.00 | 0.00 | 41 | 1014.8 |
| 20260503215100 | 62 | 316 | 2.6 | 12.2 | 0.00 | 0.00 | 0.00 | 40 | 1014.8 |
| 20260503214937 | 62 | 298 | 3.5 | 12.2 | 0.00 | 0.00 | 0.00 | 42 | 1014.8 |
| 20260503214855 | 62 | 330 | 2.6 | 12.2 | 0.00 | 0.00 | 0.00 | 41 | 1014.8 |
| 20260503214734 | 62 | 332 | 4.3 | 12.2 | 0.00 | 0.00 | 0.00 | 40 | 1014.8 |
| 20260503214704 | 62 | 308 | 1.7 | 12.2 | 0.00 | 0.00 | 0.00 | 40 | 1014.8 |
| 20260503214601 | 62 | 330 | 1.7 | 12.2 | 0.00 | 0.00 | 0.00 | 40 | 1014.8 |
| 20260503214423 | 62 | 330 | 4.3 | 12.2 | 0.00 | 0.00 | 0.00 | 40 | 1014.8 |
| 20260503214324 | 62 | 328 | 5.2 | 12.2 | 0.00 | 0.00 | 0.00 | 39 | 1015.0 |
| 20260503214243 | 62 | 329 | 5.2 | 12.2 | 0.00 | 0.00 | 0.00 | 38 | 1015.0 |
| 20260503214141 | 62 | 320 | 2.6 | 10.4 | 0.00 | 0.00 | 0.00 | 40 | 1015.0 |
| 20260503214039 | 62 | 320 | 0.9 | 10.4 | 0.00 | 0.00 | 0.00 | 40 | 1015.0 |
| 20260503213939 | 62 | 311 | 1.7 | 10.4 | 0.00 | 0.00 | 0.00 | 40 | 1015.0 |
| 20260503213837 | 62 | 305 | 5.2 | 11.3 | 0.00 | 0.00 | 0.00 | 40 | 1015.0 |
| 20260503213736 | 62 | 318 | 5.2 | 11.3 | 0.00 | 0.00 | 0.00 | 41 | 1015.0 |
| 20260503213638 | 62 | 313 | 4.3 | 11.3 | 0.00 | 0.00 | 0.00 | 40 | 1015.0 |
| 20260503213557 | 62 | 320 | 1.7 | 11.3 | 0.00 | 0.00 | 0.00 | 38 | 1015.0 |
| 20260503213434 | 62 | 311 | 1.7 | 11.3 | 0.00 | 0.00 | 0.00 | 38 | 1015.0 |
| 20260503213331 | 62 | 325 | 4.3 | 11.3 | 0.00 | 0.00 | 0.00 | 40 | 1015.0 |
| 20260503213242 | 62 | 318 | 4.3 | 11.3 | 0.00 | 0.00 | 0.00 | 40 | 1015.0 |
| 20260503213152 | 62 | 332 | 5.2 | 11.3 | 0.00 | 0.00 | 0.00 | 41 | 1015.0 |
| 20260503213028 | 62 | 325 | 7.0 | 11.3 | 0.00 | 0.00 | 0.00 | 39 | 1015.0 |
| 20260503212931 | 62 | 333 | 7.8 | 11.3 | 0.00 | 0.00 | 0.00 | 41 | 1015.0 |
| 20260503212849 | 62 | 309 | 6.1 | 11.3 | 0.00 | 0.00 | 0.00 | 42 | 1015.2 |
| 20260503212744 | 62 | 316 | 4.3 | 11.3 | 0.00 | 0.00 | 0.00 | 41 | 1015.2 |
| 20260503212703 | 62 | 288 | 6.1 | 11.3 | 0.00 | 0.00 | 0.00 | 41 | 1015.2 |
| 20260503212542 | 62 | 318 | 5.2 | 11.3 | 0.00 | 0.00 | 0.00 | 40 | 1015.2 |
| 20260503212440 | 62 | 319 | 1.7 | 11.3 | 0.00 | 0.00 | 0.00 | 40 | 1015.2 |
| 20260503212338 | 62 | 328 | 1.7 | 11.3 | 0.00 | 0.00 | 0.00 | 41 | 1015.2 |
| 20260503212257 | 62 | 326 | 4.3 | 11.3 | 0.00 | 0.00 | 0.00 | 41 | 1015.2 |
| 20260503212134 | 62 | 318 | 3.5 | 11.3 | 0.00 | 0.00 | 0.00 | 41 | 1015.2 |
| 20260503212036 | 62 | 322 | 2.6 | 11.3 | 0.00 | 0.00 | 0.00 | 40 | 1015.2 |
| 20260503211934 | 62 | 322 | 4.3 | 11.3 | 0.00 | 0.00 | 0.00 | 39 | 1015.2 |
| 20260503211832 | 62 | 328 | 4.3 | 11.3 | 0.00 | 0.00 | 0.00 | 41 | 1015.2 |
| 20260503211742 | 62 | 329 | 7.0 | 11.3 | 0.00 | 0.00 | 0.00 | 42 | 1015.2 |
| 20260503211650 | 61 | 304 | 7.0 | 14.8 | 0.00 | 0.00 | 0.00 | 41 | 1015.2 |
| 20260503211528 | 61 | 323 | 4.3 | 14.8 | 0.00 | 0.00 | 0.00 | 41 | 1015.2 |
| 20260503211427 | 61 | 332 | 1.7 | 14.8 | 0.00 | 0.00 | 0.00 | 40 | 1015.2 |
| 20260503211329 | 61 | 330 | 1.7 | 14.8 | 0.00 | 0.00 | 0.00 | 39 | 1015.1 |
| 20260503211228 | 61 | 301 | 3.5 | 14.8 | 0.00 | 0.00 | 0.00 | 40 | 1015.1 |
| 20260503211126 | 62 | 318 | 7.0 | 14.8 | 0.00 | 0.00 | 0.00 | 39 | 1015.1 |
| 20260503211045 | 62 | 320 | 6.1 | 14.8 | 0.00 | 0.00 | 0.00 | 39 | 1015.1 |
| 20260503211004 | 62 | 328 | 5.2 | 14.8 | 0.00 | 0.00 | 0.00 | 40 | 1015.1 |
| 20260503210841 | 62 | 332 | 8.7 | 14.8 | 0.00 | 0.00 | 0.00 | 39 | 1015.1 |
| 20260503210739 | 62 | 318 | 9.6 | 14.8 | 0.00 | 0.00 | 0.00 | 41 | 1015.1 |
| 20260503210641 | 62 | 328 | 5.2 | 9.6 | 0.00 | 0.00 | 0.00 | 40 | 1015.1 |
| 20260503210539 | 62 | 294 | 4.3 | 12.2 | 0.00 | 0.00 | 0.00 | 40 | 1015.1 |
| 20260503210458 | 62 | 323 | 3.5 | 12.2 | 0.00 | 0.00 | 0.00 | 41 | 1015.1 |
| 20260503210416 | 62 | 312 | 3.5 | 12.2 | 0.00 | 0.00 | 0.00 | 40 | 1015.1 |
| 20260503210314 | 62 | 319 | 0.9 | 12.2 | 0.00 | 0.00 | 0.00 | 38 | 1015.1 |
| 20260503210224 | 62 | 308 | 0.9 | 12.2 | 0.00 | 0.00 | 0.00 | 38 | 1015.1 |
| 20260503210040 | 62 | 304 | 3.5 | 12.2 | 0.00 | 0.00 | 0.00 | 41 | 1015.1 |
| 20260503205940 | 62 | 323 | 1.7 | 12.2 | 0.00 | 0.00 | 0.00 | 44 | 1015.1 |
| 20260503205838 | 62 | 326 | 4.3 | 12.2 | 0.00 | 0.00 | 0.00 | 43 | 1015.3 |
| 20260503205741 | 62 | 325 | 7.0 | 12.2 | 0.00 | 0.00 | 0.00 | 42 | 1015.3 |
| 20260503205640 | 62 | 322 | 6.1 | 10.4 | 0.00 | 0.00 | 0.00 | 42 | 1015.3 |
| 20260503205538 | 62 | 318 | 5.2 | 9.6 | 0.00 | 0.00 | 0.00 | 41 | 1015.3 |
| 20260503205436 | 62 | 285 | 4.3 | 9.6 | 0.00 | 0.00 | 0.00 | 40 | 1015.3 |
| 20260503205335 | 62 | 326 | 2.6 | 9.6 | 0.00 | 0.00 | 0.00 | 40 | 1015.3 |
| 20260503205233 | 62 | 329 | 0.9 | 9.6 | 0.00 | 0.00 | 0.00 | 39 | 1015.3 |
| 20260503205136 | 62 | 328 | 5.2 | 9.6 | 0.00 | 0.00 | 0.00 | 40 | 1015.3 |
| 20260503205033 | 62 | 313 | 2.6 | 9.6 | 0.00 | 0.00 | 0.00 | 41 | 1015.3 |
| 20260503204932 | 62 | 316 | 4.3 | 9.6 | 0.00 | 0.00 | 0.00 | 41 | 1015.3 |
| 20260503204831 | 62 | 335 | 6.1 | 9.6 | 0.00 | 0.00 | 0.00 | 44 | 1015.3 |
| 20260503204743 | 62 | 311 | 3.5 | 7.0 | 0.00 | 0.00 | 0.00 | 44 | 1015.3 |